FW6434 Weather Reports


time (UTC)temp
C
wind
direction
speed
KPH
gust
KPH
rain 1hr
cm
rain 24hr
cm
rain mn
cm
humidity
%
barometer
mb
20260506151111 23 231 3.2 14.5 0.00 0.00 0.00 49 1005.6
20260506151011 23 212 6.4 14.5 0.00 0.00 0.00 49 1005.5
20260506150910 23 198 1.6 14.5 0.00 0.00 0.00 49 1005.4
20260506150807 23 189 0.0 14.5 0.00 0.00 0.00 49 1005.5
20260506150654 23 185 0.0 1.6 0.00 0.00 0.00 49 1005.2
20260506150553 23 198 0.0 3.2 0.00 0.00 0.00 49 1005.3
20260506150501 23 176 0.0 3.2 0.00 0.00 0.00 49 1005.5
20260506150453 24 179 0.0 3.2 0.00 0.00 0.00 49 1005.5
20260506150353 24 187 0.0 4.8 0.00 0.00 0.00 49 1005.3
20260506150304 24 186 0.0 6.4 0.00 0.00 0.00 49 1005.5
20260506150154 24 179 0.0 6.4 0.00 0.00 0.00 49 1005.6
20260506150052 24 130 0.0 6.4 0.00 0.00 0.00 50 1005.4
20260506150000 24 192 0.0 6.4 0.00 0.00 0.00 50 1005.2
20260506145952 24 192 0.0 6.4 0.00 0.00 0.00 49 1005.2
20260506145852 24 186 0.0 6.4 0.00 0.00 0.00 49 1005.4
20260506145752 24 192 0.0 6.4 0.00 0.00 0.00 49 1005.4
20260506145652 24 185 0.0 6.4 0.00 0.00 0.00 49 1005.4
20260506145541 24 171 1.6 11.3 0.00 0.00 0.00 49 1005.3
20260506145500 24 196 0.0 11.3 0.00 0.00 0.00 49 1005.5
20260506145440 24 198 1.6 11.3 0.00 0.00 0.00 48 1005.5
20260506145340 24 189 3.2 11.3 0.00 0.00 0.00 48 1005.6
20260506145315 24 250 1.6 11.3 0.00 0.00 0.00 48 1005.8
20260506145300 24 202 0.0 11.3 0.00 0.00 0.00 48 1005.5
20260506145000 24 184 0.0 16.1 0.00 0.00 0.00 49 1005.6
20260506144941 24 171 0.0 16.1 0.00 0.00 0.00 48 1005.6
20260506144840 24 186 0.0 16.1 0.00 0.00 0.00 50 1005.5
20260506144740 24 196 0.0 16.1 0.00 0.00 0.00 50 1005.7
20260506144706 24 207 0.0 12.9 0.00 0.00 0.00 47 1005.8
20260506144658 24 221 4.8 16.1 0.00 0.00 0.00 49 1005.6
20260506144642 24 216 0.0 16.1 0.00 0.00 0.00 49 1005.6
20260506144618 24 193 0.0 16.1 0.00 0.00 0.00 49 1005.5
20260506144600 24 201 0.0 16.1 0.00 0.00 0.00 49 1005.8
20260506144545 24 179 0.0 16.1 0.00 0.00 0.00 49 1005.7
20260506144528 24 188 1.6 16.1 0.00 0.00 0.00 49 1005.7
20260506144512 24 240 0.0 9.7 0.00 0.00 0.00 49 1005.7
20260506144458 24 195 3.2 9.7 0.00 0.00 0.00 48 1005.6
20260506144450 24 212 1.6 9.7 0.00 0.00 0.00 48 1005.6
20260506144436 25 177 0.0 9.7 0.00 0.00 0.00 48 1005.7
20260506144420 25 182 0.0 9.7 0.00 0.00 0.00 49 1005.6
20260506144405 25 194 0.0 9.7 0.00 0.00 0.00 48 1005.8
20260506144349 25 184 0.0 9.7 0.00 0.00 0.00 49 1005.7
20260506144334 25 140 1.6 9.7 0.00 0.00 0.00 48 1005.7
20260506144104 24 187 0.0 12.9 0.00 0.00 0.00 49 1005.6
20260506144048 24 164 0.0 12.9 0.00 0.00 0.00 48 1005.8
20260506144032 24 280 6.4 12.9 0.00 0.00 0.00 48 1005.9
20260506143545 24 187 0.0 12.9 0.00 0.00 0.00 48 1005.8
20260506143309 24 230 0.0 12.9 0.00 0.00 0.00 48 1005.9
20260506143254 24 184 0.0 12.9 0.00 0.00 0.00 49 1005.8
20260506143238 24 216 4.8 12.9 0.00 0.00 0.00 48 1005.8
20260506143225 24 228 8.0 16.1 0.00 0.00 0.00 48 1005.8
20260506142955 24 234 0.0 16.1 0.00 0.00 0.00 48 1005.8
20260506142240 23 178 0.0 20.9 0.00 0.00 0.00 49 1006.0
20260506141741 23 191 0.0 20.9 0.00 0.00 0.00 50 1006.2
20260506141725 23 176 0.0 20.9 0.00 0.00 0.00 49 1005.7
20260506141452 23 205 4.8 20.9 0.00 0.00 0.00 50 1006.2
20260506141443 23 194 0.0 20.9 0.00 0.00 0.00 49 1005.9
20260506141426 23 191 1.6 20.9 0.00 0.00 0.00 49 1005.8
20260506141105 23 256 4.8 20.9 0.00 0.00 0.00 49 1006.0
20260506141006 23 252 17.7 20.9 0.00 0.00 0.00 49 1005.8
20260506140938 23 180 3.2 16.1 0.00 0.00 0.00 49 1005.8
20260506140905 23 239 3.2 16.1 0.00 0.00 0.00 48 1005.9
20260506140805 23 255 1.6 16.1 0.00 0.00 0.00 48 1005.8
20260506140705 23 221 3.2 16.1 0.00 0.00 0.00 48 1005.8
20260506140605 23 133 0.0 16.1 0.00 0.00 0.00 48 1005.7
20260506140504 23 169 1.6 16.1 0.00 0.00 0.00 48 1005.6
20260506140437 23 206 3.2 16.1 0.00 0.00 0.00 48 1005.6
20260506140406 23 204 6.4 16.1 0.00 0.00 0.00 48 1005.8
20260506140304 23 223 3.2 14.5 0.00 0.00 0.00 49 1005.8
20260506140200 23 202 1.6 14.5 0.00 0.00 0.00 50 1005.9
20260506140101 23 230 6.4 14.5 0.00 0.00 0.00 50 1005.8
20260506135959 23 239 3.2 16.1 0.00 0.00 0.00 50 1005.7
20260506135946 23 208 3.2 16.1 0.00 0.00 0.00 50 1005.7
20260506135937 23 50 1.6 22.5 0.00 0.00 0.00 49 1006.2
20260506135921 23 250 6.4 22.5 0.00 0.00 0.00 49 1006.0
20260506135621 24 238 3.2 11.3 0.00 0.00 0.00 49 1005.9
20260506135614 23 167 0.0 22.5 0.00 0.00 0.00 49 1005.8
20260506135558 23 82 0.0 22.5 0.00 0.00 0.00 49 1005.9
20260506135546 23 188 4.8 22.5 0.00 0.00 0.00 49 1005.9
20260506135536 24 225 3.2 22.5 0.00 0.00 0.00 48 1006.0
20260506135518 24 225 6.4 22.5 0.00 0.00 0.00 48 1005.9
20260506135502 24 256 9.7 22.5 0.00 0.00 0.00 47 1005.8
20260506135225 24 216 12.9 22.5 0.00 0.00 0.00 47 1005.9
20260506135212 24 249 4.8 16.1 0.00 0.00 0.00 48 1005.7
20260506135203 24 227 14.5 16.1 0.00 0.00 0.00 48 1005.7
20260506134700 23 233 1.6 14.5 0.00 0.00 0.00 49 1006.2
20260506134643 23 203 6.4 14.5 0.00 0.00 0.00 49 1006.2
20260506134352 24 216 0.0 11.3 0.00 0.00 0.00 50 1005.9
20260506134251 24 264 3.2 9.7 0.00 0.00 0.00 51 1005.7
20260506134152 24 219 6.4 20.9 0.00 0.00 0.00 50 1005.9
20260506134134 24 200 3.2 20.9 0.00 0.00 0.00 51 1005.8
20260506134119 24 196 1.6 20.9 0.00 0.00 0.00 50 1006.0
20260506134105 24 202 1.6 20.9 0.00 0.00 0.00 51 1006.0
20260506133751 24 196 0.0 20.9 0.00 0.00 0.00 50 1006.0
20260506133654 24 174 0.0 20.9 0.00 0.00 0.00 50 1005.9
20260506133553 24 167 0.0 20.9 0.00 0.00 0.00 50 1005.8
20260506133452 24 222 3.2 20.9 0.00 0.00 0.00 49 1006.2
20260506133425 24 100 0.0 20.9 0.00 0.00 0.00 49 1005.8
20260506133353 24 230 1.6 20.9 0.00 0.00 0.00 49 1005.8
20260506133252 24 262 4.8 20.9 0.00 0.00 0.00 49 1005.8
20260506133217 24 136 1.6 25.7 0.00 0.00 0.00 50 1005.9
20260506133201 24 191 0.0 25.7 0.00 0.00 0.00 51 1006.0
20260506132918 24 203 1.6 25.7 0.00 0.00 0.00 50 1006.0
20260506132909 24 260 0.0 25.7 0.00 0.00 0.00 50 1006.0
20260506132853 24 162 0.0 25.7 0.00 0.00 0.00 50 1006.0
20260506132838 24 203 0.0 25.7 0.00 0.00 0.00 51 1005.9
20260506132601 23 196 3.2 25.7 0.00 0.00 0.00 51 1005.9
20260506132548 24 201 6.4 25.7 0.00 0.00 0.00 50 1006.0
20260506132539 24 307 8.0 25.7 0.00 0.00 0.00 51 1006.0
20260506132522 24 313 9.7 27.4 0.00 0.00 0.00 50 1006.3
20260506131940 24 196 3.2 27.4 0.00 0.00 0.00 50 1006.2
20260506131912 24 205 1.6 27.4 0.00 0.00 0.00 50 1006.0
20260506131842 24 194 0.0 27.4 0.00 0.00 0.00 51 1006.0
20260506131744 24 144 0.0 27.4 0.00 0.00 0.00 51 1006.2
20260506131732 24 220 6.4 22.5 0.00 0.00 0.00 51 1005.9
20260506131722 23 124 0.0 27.4 0.00 0.00 0.00 51 1006.0
20260506131706 23 205 1.6 27.4 0.00 0.00 0.00 51 1006.3
20260506131650 23 204 3.2 27.4 0.00 0.00 0.00 51 1006.0
20260506131637 23 182 17.7 27.4 0.00 0.00 0.00 50 1006.0
20260506131407 23 199 8.0 22.5 0.00 0.00 0.00 50 1005.9
20260506131142 23 228 8.0 22.5 0.00 0.00 0.00 50 1006.0
20260506131128 24 272 9.7 22.5 0.00 0.00 0.00 51 1006.0
20260506131112 24 236 9.7 22.5 0.00 0.00 0.00 51 1005.9
20260506130844 23 193 0.0 22.5 0.00 0.00 0.00 51 1006.3
20260506130828 23 157 0.0 22.5 0.00 0.00 0.00 53 1006.3
20260506130813 23 193 4.8 22.5 0.00 0.00 0.00 52 1006.3
20260506130537 24 257 16.1 22.5 0.00 0.00 0.00 50 1006.2
20260506130525 24 194 12.9 17.7 0.00 0.00 0.00 50 1006.2
20260506130206 24 173 0.0 17.7 0.00 0.00 0.00 49 1005.9
20260506130107 24 125 1.6 17.7 0.00 0.00 0.00 50 1006.0
20260506130017 25 227 9.7 17.7 0.00 0.00 0.00 50 1006.0
20260506130001 25 248 0.0 17.7 0.00 0.00 0.00 51 1005.8
20260506125947 25 208 1.6 17.7 0.00 0.00 0.00 50 1005.8
20260506125937 25 187 0.0 17.7 0.00 0.00 0.00 50 1005.9
20260506125922 25 180 0.0 17.7 0.00 0.00 0.00 50 1006.2
20260506125906 25 179 0.0 17.7 0.00 0.00 0.00 49 1006.3
20260506125632 25 199 3.2 16.1 0.00 0.00 0.00 50 1006.3
20260506125620 25 167 0.0 16.1 0.00 0.00 0.00 50 1006.3
20260506125348 24 134 1.6 24.1 0.00 0.00 0.00 51 1006.2
20260506125334 24 193 0.0 24.1 0.00 0.00 0.00 51 1006.0
20260506125318 24 188 0.0 24.1 0.00 0.00 0.00 50 1006.0
20260506125305 24 216 6.4 24.1 0.00 0.00 0.00 50 1006.3
20260506125249 24 230 1.6 24.1 0.00 0.00 0.00 51 1006.3
20260506125020 23 111 0.0 24.1 0.00 0.00 0.00 53 1006.3
20260506125004 23 214 9.7 24.1 0.00 0.00 0.00 51 1006.3
20260506124511 24 213 8.0 24.1 0.00 0.00 0.00 51 1006.4
20260506124224 24 135 0.0 20.9 0.00 0.00 0.00 51 1006.2
20260506124208 24 193 0.0 20.9 0.00 0.00 0.00 51 1006.3
20260506123902 23 212 0.0 16.1 0.00 0.00 0.00 53 1006.3
20260506123857 24 131 1.6 12.9 0.00 0.00 0.00 51 1006.2
20260506123845 24 78 3.2 12.9 0.00 0.00 0.00 51 1006.2
20260506123835 24 251 4.8 12.9 0.00 0.00 0.00 52 1006.2
20260506123818 23 281 8.0 12.9 0.00 0.00 0.00 52 1006.5
20260506123802 23 192 0.0 16.1 0.00 0.00 0.00 53 1006.4
20260506123747 23 216 6.4 16.1 0.00 0.00 0.00 53 1006.4
20260506123730 23 212 0.0 16.1 0.00 0.00 0.00 53 1006.3
20260506123501 23 247 1.6 24.1 0.00 0.00 0.00 53 1006.6
20260506123444 23 157 0.0 24.1 0.00 0.00 0.00 54 1006.3
20260506123209 23 204 1.6 24.1 0.00 0.00 0.00 53 1006.5
20260506123153 23 156 0.0 24.1 0.00 0.00 0.00 54 1006.5
20260506123143 23 143 0.0 24.1 0.00 0.00 0.00 54 1006.5
20260506122651 23 194 4.8 24.1 0.00 0.00 0.00 53 1006.6
20260506122636 23 314 0.0 24.1 0.00 0.00 0.00 54 1006.6
20260506122620 24 224 17.7 24.1 0.00 0.00 0.00 53 1006.5
20260506122608 24 219 11.3 17.7 0.00 0.00 0.00 53 1006.6
20260506122028 24 209 0.0 12.9 0.00 0.00 0.00 52 1006.4
20260506122006 24 177 0.0 14.5 0.00 0.00 0.00 52 1006.6
20260506121942 24 212 0.0 14.5 0.00 0.00 0.00 52 1006.4
20260506121618 24 195 1.6 14.5 0.00 0.00 0.00 51 1006.3
20260506121519 25 216 4.8 14.5 0.00 0.00 0.00 51 1006.3
20260506121420 25 178 0.0 14.5 0.00 0.00 0.00 51 1006.5
20260506121318 25 191 0.0 14.5 0.00 0.00 0.00 52 1006.6
20260506121216 24 198 0.0 14.5 0.00 0.00 0.00 53 1006.6
20260506121111 24 200 0.0 24.1 0.00 0.00 0.00 53 1006.5
20260506121049 24 145 1.6 24.1 0.00 0.00 0.00 52 1006.4
20260506121033 23 215 1.6 24.1 0.00 0.00 0.00 52 1006.4
20260506120806 23 192 1.6 24.1 0.00 0.00 0.00 52 1006.5
20260506120707 23 7 8.0 24.1 0.00 0.00 0.00 52 1006.6
20260506120625 23 241 3.2 25.7 0.00 0.00 0.00 54 1006.4
20260506120618 23 329 1.6 25.7 0.00 0.00 0.00 54 1006.6
20260506120602 23 217 6.4 25.7 0.00 0.00 0.00 53 1006.4
20260506120546 23 178 1.6 25.7 0.00 0.00 0.00 54 1006.6
20260506120529 23 241 3.2 25.7 0.00 0.00 0.00 54 1006.4
20260506120206 23 269 4.8 35.4 0.00 0.00 0.00 54 1006.6
20260506120142 23 219 12.9 35.4 0.00 0.00 0.00 53 1006.4
20260506120125 23 179 8.0 35.4 0.00 0.00 0.00 54 1006.3
20260506115806 23 197 3.2 35.4 0.00 0.00 0.00 54 1006.5
20260506115704 23 232 3.2 35.4 0.00 0.00 0.00 53 1006.3
20260506115615 23 209 1.6 35.4 0.00 0.00 0.00 53 1006.4
20260506115559 23 218 1.6 35.4 0.00 0.00 0.00 54 1006.5
20260506115544 23 210 4.8 35.4 0.00 0.00 0.00 55 1006.2
20260506115317 23 226 6.4 35.4 0.00 0.00 0.00 55 1006.3
20260506115300 23 207 1.6 24.1 0.00 0.00 0.00 54 1006.5
20260506115243 23 169 11.3 25.7 0.00 0.00 0.00 53 1006.5
20260506115226 23 196 4.8 25.7 0.00 0.00 0.00 53 1006.5
20260506114951 23 189 0.0 25.7 0.00 0.00 0.00 54 1006.3
20260506114634 23 262 6.4 25.7 0.00 0.00 0.00 55 1006.5
20260506114535 23 203 3.2 25.7 0.00 0.00 0.00 54 1006.4
20260506114437 23 312 3.2 25.7 0.00 0.00 0.00 55 1006.4
20260506114420 23 179 1.6 25.7 0.00 0.00 0.00 55 1006.3
20260506114406 23 207 3.2 25.7 0.00 0.00 0.00 55 1006.5
20260506114358 23 207 3.2 25.7 0.00 0.00 0.00 54 1006.5
20260506114112 23 339 1.6 20.9 0.00 0.00 0.00 54 1006.4
20260506114055 23 68 1.6 20.9 0.00 0.00 0.00 56 1006.2
20260506113808 23 189 8.0 25.7 0.00 0.00 0.00 55 1006.7
20260506113800 23 273 3.2 25.7 0.00 0.00 0.00 55 1006.4
20260506113744 23 214 1.6 25.7 0.00 0.00 0.00 55 1006.3
20260506113728 23 127 0.0 25.7 0.00 0.00 0.00 55 1006.3
20260506113712 23 230 1.6 25.7 0.00 0.00 0.00 56 1006.6
20260506113438 23 249 3.2 25.7 0.00 0.00 0.00 56 1006.4
20260506113100 23 233 12.9 25.7 0.00 0.00 0.00 55 1006.4
20260506113001 23 267 4.8 25.7 0.00 0.00 0.00 56 1006.3
20260506112900 23 131 11.3 25.7 0.00 0.00 0.00 56 1006.3
20260506112759 22 179 3.2 22.5 0.00 0.00 0.00 56 1006.0
20260506112744 22 206 0.0 22.5 0.00 0.00 0.00 57 1006.0
20260506112655 22 207 0.0 22.5 0.00 0.00 0.00 57 1006.6
20260506112554 23 234 9.7 22.5 0.00 0.00 0.00 56 1006.6
20260506112529 23 219 6.4 16.1 0.00 0.00 0.00 56 1006.3
20260506112513 23 207 6.4 12.9 0.00 0.00 0.00 56 1006.5
20260506112238 23 180 3.2 12.9 0.00 0.00 0.00 57 1006.4
20260506112153 23 208 1.6 12.9 0.00 0.00 0.00 56 1006.4
20260506112117 23 185 0.0 12.9 0.00 0.00 0.00 56 1006.5
20260506112100 23 238 0.0 12.9 0.00 0.00 0.00 55 1006.5
20260506111829 23 209 1.6 22.5 0.00 0.00 0.00 56 1006.5
20260506111810 23 192 0.0 14.5 0.00 0.00 0.00 56 1006.4
20260506111754 23 190 0.0 16.1 0.00 0.00 0.00 56 1006.7
20260506111529 23 173 0.0 17.7 0.00 0.00 0.00 55 1006.6
20260506111514 23 190 0.0 22.5 0.00 0.00 0.00 56 1006.5
20260506111459 23 209 0.0 22.5 0.00 0.00 0.00 55 1006.5
20260506111442 23 209 1.6 22.5 0.00 0.00 0.00 56 1006.5
20260506111129 23 175 0.0 22.5 0.00 0.00 0.00 55 1006.6
20260506111029 23 251 0.0 22.5 0.00 0.00 0.00 56 1006.3
20260506110928 23 194 1.6 22.5 0.00 0.00 0.00 56 1006.6
20260506110828 23 141 3.2 22.5 0.00 0.00 0.00 56 1006.5
20260506110724 23 151 0.0 22.5 0.00 0.00 0.00 56 1006.6
20260506110625 23 5 4.8 22.5 0.00 0.00 0.00 56 1006.4
20260506110524 23 140 1.6 22.5 0.00 0.00 0.00 56 1006.5
20260506110500 24 172 6.4 22.5 0.00 0.00 0.00 55 1006.3
20260506110446 24 172 0.0 22.5 0.00 0.00 0.00 56 1006.2
20260506110219 23 224 3.2 22.5 0.00 0.00 0.00 55 1006.5
20260506110118 23 250 0.0 22.5 0.00 0.00 0.00 55 1006.6
20260506110017 23 198 0.0 22.5 0.00 0.00 0.00 55 1006.6
20260506105916 23 177 0.0 22.5 0.00 0.00 0.00 55 1006.6
20260506105817 23 175 0.0 22.5 0.00 0.00 0.00 57 1006.6
20260506105716 23 176 0.0 22.5 0.00 0.00 0.00 56 1006.5
20260506105649 23 239 4.8 22.5 0.00 0.00 0.00 56 1006.6
20260506105633 23 307 6.4 16.1 0.00 0.00 0.00 56 1006.5
20260506105312 23 226 8.0 16.1 0.00 0.00 0.00 55 1006.4
20260506105212 23 22 6.4 16.1 0.00 0.00 0.00 55 1006.7
20260506105110 23 261 6.4 16.1 0.00 0.00 0.00 56 1006.7
20260506105011 23 41 12.9 16.1 0.00 0.00 0.00 55 1006.5
20260506104910 23 236 6.4 12.9 0.00 0.00 0.00 56 1006.7
20260506104808 23 293 1.6 12.9 0.00 0.00 0.00 55 1006.5
20260506104746 23 200 0.0 12.9 0.00 0.00 0.00 56 1006.6
20260506104729 23 196 0.0 22.5 0.00 0.00 0.00 55 1006.5
20260506104457 23 196 0.0 22.5 0.00 0.00 0.00 56 1006.9
20260506104448 23 166 0.0 22.5 0.00 0.00 0.00 55 1006.7
20260506104432 23 232 4.8 22.5 0.00 0.00 0.00 56 1006.7
20260506104414 23 196 0.0 22.5 0.00 0.00 0.00 56 1006.9
20260506104104 23 175 0.0 22.5 0.00 0.00 0.00 56 1006.8
20260506104004 23 233 0.0 22.5 0.00 0.00 0.00 56 1006.7
20260506103901 23 145 0.0 22.5 0.00 0.00 0.00 56 1006.5
20260506103800 23 297 0.0 22.5 0.00 0.00 0.00 55 1006.5
20260506103700 23 225 3.2 22.5 0.00 0.00 0.00 55 1006.5
20260506103604 23 74 0.0 22.5 0.00 0.00 0.00 56 1006.8
20260506103548 22 171 0.0 22.5 0.00 0.00 0.00 57 1006.6
20260506103531 23 199 1.6 25.7 0.00 0.00 0.00 56 1006.6
20260506103516 23 226 16.1 25.7 0.00 0.00 0.00 55 1006.8
20260506103454 23 253 0.0 25.7 0.00 0.00 0.00 56 1006.6
20260506103436 23 230 6.4 25.7 0.00 0.00 0.00 56 1006.7
20260506103201 23 191 1.6 25.7 0.00 0.00 0.00 56 1006.7
20260506103145 23 191 0.0 25.7 0.00 0.00 0.00 56 1006.6
20260506103122 23 186 0.0 25.7 0.00 0.00 0.00 55 1006.7
20260506102625 23 275 4.8 17.7 0.00 0.00 0.00 55 1006.7
20260506102349 23 161 1.6 17.7 0.00 0.00 0.00 55 1006.9
20260506102106 23 48 0.0 17.7 0.00 0.00 0.00 56 1006.5
20260506102049 23 287 6.4 17.7 0.00 0.00 0.00 56 1006.8
20260506101730 23 334 1.6 20.9 0.00 0.00 0.00 55 1006.5
20260506101637 23 175 3.2 20.9 0.00 0.00 0.00 55 1006.5
20260506101629 23 190 6.4 20.9 0.00 0.00 0.00 55 1006.6
20260506101529 23 211 1.6 20.9 0.00 0.00 0.00 55 1006.7
20260506101428 23 154 1.6 20.9 0.00 0.00 0.00 55 1006.7
20260506101329 23 202 0.0 20.9 0.00 0.00 0.00 57 1006.7
20260506101224 23 227 1.6 20.9 0.00 0.00 0.00 55 1007.0
20260506101135 23 180 0.0 20.9 0.00 0.00 0.00 56 1007.0
20260506101127 23 180 0.0 20.9 0.00 0.00 0.00 57 1006.6
20260506101022 23 212 0.0 20.9 0.00 0.00 0.00 56 1006.8
20260506100923 23 248 14.5 20.9 0.00 0.00 0.00 55 1006.7
20260506100824 23 187 0.0 20.9 0.00 0.00 0.00 56 1006.7
20260506100752 23 203 1.6 20.9 0.00 0.00 0.00 56 1006.7
20260506100735 23 211 1.6 25.7 0.00 0.00 0.00 56 1006.7
20260506100728 23 211 0.0 25.7 0.00 0.00 0.00 56 1006.7
20260506100713 23 180 0.0 25.7 0.00 0.00 0.00 56 1006.7
20260506100436 22 176 0.0 25.7 0.00 0.00 0.00 57 1006.8
20260506100421 22 173 1.6 25.7 0.00 0.00 0.00 57 1006.8
20260506100405 22 91 6.4 25.7 0.00 0.00 0.00 57 1006.7
20260506100357 22 280 9.7 25.7 0.00 0.00 0.00 57 1006.7
20260506100120 22 181 0.0 25.7 0.00 0.00 0.00 58 1006.6
20260506100105 22 225 3.2 25.7 0.00 0.00 0.00 59 1006.5
20260506095827 22 181 0.0 17.7 0.00 0.00 0.00 58 1006.6
20260506095517 22 137 0.0 17.7 0.00 0.00 0.00 58 1006.4
20260506095416 22 247 8.0 17.7 0.00 0.00 0.00 58 1006.7
20260506095317 22 122 0.0 17.7 0.00 0.00 0.00 58 1006.5
20260506095305 22 232 3.2 17.7 0.00 0.00 0.00 58 1006.6
20260506095246 22 143 3.2 17.7 0.00 0.00 0.00 58 1006.6
20260506095237 22 293 4.8 17.7 0.00 0.00 0.00 58 1006.6
20260506094913 22 311 6.4 17.7 0.00 0.00 0.00 57 1006.6
20260506094812 22 211 0.0 16.1 0.00 0.00 0.00 57 1006.8
20260506094709 22 187 0.0 16.1 0.00 0.00 0.00 57 1006.4
20260506094624 22 180 0.0 16.1 0.00 0.00 0.00 58 1006.7
20260506094600 22 186 0.0 22.5 0.00 0.00 0.00 58 1006.7
20260506094500 22 192 0.0 22.5 0.00 0.00 0.00 57 1006.7
20260506094359 22 83 1.6 22.5 0.00 0.00 0.00 58 1006.6
20260506094254 22 169 6.4 22.5 0.00 0.00 0.00 57 1006.8
20260506094152 22 150 0.0 22.5 0.00 0.00 0.00 57 1006.5
20260506094112 22 82 0.0 22.5 0.00 0.00 0.00 57 1006.6
20260506094053 22 190 1.6 22.5 0.00 0.00 0.00 57 1006.6
20260506093952 22 50 0.0 22.5 0.00 0.00 0.00 56 1006.7
20260506093853 23 208 1.6 22.5 0.00 0.00 0.00 56 1006.7
20260506093829 23 194 0.0 22.5 0.00 0.00 0.00 57 1006.7
20260506093815 23 224 1.6 22.5 0.00 0.00 0.00 56 1006.6
20260506093801 23 62 8.0 22.5 0.00 0.00 0.00 56 1006.6
20260506093444 23 114 1.6 16.1 0.00 0.00 0.00 56 1006.6
20260506093341 23 199 0.0 16.1 0.00 0.00 0.00 55 1006.7
20260506093241 23 226 1.6 16.1 0.00 0.00 0.00 56 1006.6
20260506093226 23 142 1.6 16.1 0.00 0.00 0.00 56 1006.7
20260506093210 23 206 1.6 16.1 0.00 0.00 0.00 56 1006.6
20260506093202 23 175 0.0 16.1 0.00 0.00 0.00 55 1006.6
20260506092834 23 243 0.0 22.5 0.00 0.00 0.00 55 1006.3
20260506092734 23 183 0.0 22.5 0.00 0.00 0.00 55 1006.4
20260506092634 23 183 0.0 22.5 0.00 0.00 0.00 55 1006.3
20260506092554 23 74 0.0 22.5 0.00 0.00 0.00 56 1006.4
20260506092534 23 177 1.6 22.5 0.00 0.00 0.00 56 1006.4
20260506092434 23 179 0.0 22.5 0.00 0.00 0.00 56 1006.6
20260506092408 23 80 0.0 22.5 0.00 0.00 0.00 55 1006.0
20260506092353 23 260 3.2 22.5 0.00 0.00 0.00 56 1006.4
20260506092051 22 166 1.6 22.5 0.00 0.00 0.00 57 1006.4
20260506092030 22 237 6.4 22.5 0.00 0.00 0.00 57 1006.3
20260506091929 22 140 0.0 22.5 0.00 0.00 0.00 58 1006.5
20260506091830 22 191 11.3 22.5 0.00 0.00 0.00 58 1006.6
20260506091728 22 169 0.0 22.5 0.00 0.00 0.00 57 1006.5
20260506091628 22 220 3.2 22.5 0.00 0.00 0.00 57 1006.6
20260506091548 22 171 1.6 22.5 0.00 0.00 0.00 58 1006.6
20260506091529 22 243 9.7 22.5 0.00 0.00 0.00 58 1006.4
20260506091428 22 196 0.0 17.7 0.00 0.00 0.00 59 1006.2
20260506091329 23 203 8.0 17.7 0.00 0.00 0.00 57 1006.4
20260506091228 23 192 0.0 17.7 0.00 0.00 0.00 57 1006.7
20260506091207 23 230 1.6 14.5 0.00 0.00 0.00 57 1006.2
20260506091150 23 217 0.0 14.5 0.00 0.00 0.00 57 1006.2
20260506091143 23 200 0.0 17.7 0.00 0.00 0.00 57 1006.2
20260506090816 23 188 0.0 20.9 0.00 0.00 0.00 57 1006.3
20260506090712 23 214 9.7 20.9 0.00 0.00 0.00 57 1006.3
20260506090611 23 199 3.2 20.9 0.00 0.00 0.00 57 1006.4
20260506090547 23 276 0.0 20.9 0.00 0.00 0.00 58 1006.4
20260506090511 23 212 0.0 20.9 0.00 0.00 0.00 57 1006.4
20260506090410 22 119 0.0 20.9 0.00 0.00 0.00 58 1006.5
20260506090300 22 202 0.0 20.9 0.00 0.00 0.00 60 1006.3
20260506090213 22 199 0.0 20.9 0.00 0.00 0.00 60 1006.3
20260506090157 22 243 3.2 20.9 0.00 0.00 0.00 59 1006.5
20260506090144 22 163 9.7 20.9 0.00 0.00 0.00 59 1006.5
20260506090120 21 179 0.0 20.9 0.00 0.00 0.00 60 1006.5
20260506085759 21 235 3.2 20.9 0.00 0.00 0.00 61 1006.5
20260506085655 21 267 9.7 20.9 0.00 0.00 0.00 60 1006.3
20260506085554 22 244 11.3 20.9 0.00 0.00 0.00 60 1006.4
20260506085538 22 232 6.4 20.9 0.00 0.00 0.00 60 1006.4
20260506085452 22 86 1.6 20.9 0.00 0.00 0.00 60 1006.4
20260506085353 22 282 9.7 14.5 0.00 0.00 0.00 58 1006.6
20260506085253 21 188 3.2 11.3 0.00 0.00 0.00 61 1006.3
20260506085153 21 198 1.6 11.3 0.00 0.00 0.00 60 1006.4
20260506085041 22 271 6.4 11.3 0.00 0.00 0.00 60 1006.3
20260506084446 21 225 4.8 25.7 0.00 0.00 0.00 62 1006.3
20260506084346 21 184 4.8 25.7 0.00 0.00 0.00 62 1006.4
20260506084246 21 215 3.2 25.7 0.00 0.00 0.00 61 1006.0
20260506084144 21 232 8.0 30.6 0.00 0.00 0.00 61 1006.4
20260506084128 21 223 6.4 30.6 0.00 0.00 0.00 61 1006.4
20260506084044 21 227 11.3 30.6 0.00 0.00 0.00 61 1006.4
20260506083945 21 195 6.4 30.6 0.00 0.00 0.00 63 1006.3
20260506083840 21 211 9.7 30.6 0.00 0.00 0.00 62 1006.4
20260506083739 21 238 22.5 30.6 0.00 0.00 0.00 61 1005.9
20260506083641 21 241 8.0 30.6 0.00 0.00 0.00 60 1006.2
20260506083624 21 203 4.8 30.6 0.00 0.00 0.00 60 1006.2
20260506083540 21 199 0.0 30.6 0.00 0.00 0.00 60 1006.3
20260506083505 22 158 1.6 12.9 0.00 0.00 0.00 58 1005.9
20260506083456 21 198 1.6 30.6 0.00 0.00 0.00 60 1006.0
20260506083440 22 148 1.6 30.6 0.00 0.00 0.00 61 1005.9
20260506083425 22 229 12.9 30.6 0.00 0.00 0.00 59 1005.9
20260506083153 22 243 6.4 29.0 0.00 0.00 0.00 59 1005.9
20260506083142 23 191 4.8 29.0 0.00 0.00 0.00 58 1005.9
20260506083127 23 258 3.2 12.9 0.00 0.00 0.00 57 1005.9
20260506083110 23 203 0.0 12.9 0.00 0.00 0.00 57 1006.0
20260506082833 22 205 4.8 12.9 0.00 0.00 0.00 58 1005.9
20260506082534 22 190 3.2 12.9 0.00 0.00 0.00 59 1006.0
20260506082450 23 196 0.0 12.9 0.00 0.00 0.00 58 1006.0
20260506082441 22 234 6.4 12.9 0.00 0.00 0.00 58 1006.2
20260506082426 23 189 0.0 12.9 0.00 0.00 0.00 58 1006.0
20260506082410 23 199 3.2 12.9 0.00 0.00 0.00 58 1006.0
20260506082138 23 171 0.0 12.9 0.00 0.00 0.00 58 1006.2
20260506082128 23 188 0.0 12.9 0.00 0.00 0.00 58 1006.3
20260506082111 23 218 0.0 12.9 0.00 0.00 0.00 58 1006.4
20260506082056 23 132 0.0 12.9 0.00 0.00 0.00 58 1006.4
20260506081821 23 196 0.0 12.9 0.00 0.00 0.00 58 1006.0
20260506081515 22 183 0.0 12.9 0.00 0.00 0.00 59 1006.2
20260506081415 22 196 0.0 12.9 0.00 0.00 0.00 59 1006.3
20260506081310 22 234 0.0 14.5 0.00 0.00 0.00 60 1006.3
20260506081251 22 190 1.6 14.5 0.00 0.00 0.00 60 1006.3
20260506081229 22 216 3.2 14.5 0.00 0.00 0.00 60 1006.2
20260506080908 22 170 0.0 22.5 0.00 0.00 0.00 60 1006.2
20260506080857 21 184 0.0 22.5 0.00 0.00 0.00 62 1006.0
20260506080848 22 200 1.6 22.5 0.00 0.00 0.00 59 1006.2
20260506080832 21 180 0.0 22.5 0.00 0.00 0.00 61 1006.2
20260506080814 21 184 0.0 22.5 0.00 0.00 0.00 62 1006.0
20260506080504 21 210 6.4 22.5 0.00 0.00 0.00 63 1006.4
20260506080404 21 244 9.7 22.5 0.00 0.00 0.00 62 1006.0
20260506080346 21 198 1.6 22.5 0.00 0.00 0.00 60 1006.4
20260506080331 21 218 3.2 22.5 0.00 0.00 0.00 61 1006.4
20260506080104 21 199 3.2 22.5 0.00 0.00 0.00 61 1006.3
20260506073528 21 169 6.4 14.5 0.00 0.00 0.00 60 1006.2
20260506073427 21 215 0.0 14.5 0.00 0.00 0.00 62 1006.0
20260506073327 20 175 0.0 16.1 0.00 0.00 0.00 62 1006.2
20260506073228 20 203 3.2 16.1 0.00 0.00 0.00 62 1006.2
20260506073128 21 278 6.4 16.1 0.00 0.00 0.00 63 1006.0
20260506073027 21 196 0.0 16.1 0.00 0.00 0.00 62 1006.2
20260506072927 21 152 0.0 16.1 0.00 0.00 0.00 63 1006.2
20260506072827 21 88 0.0 17.7 0.00 0.00 0.00 61 1006.2
20260506072810 21 157 0.0 20.9 0.00 0.00 0.00 62 1006.2
20260506072755 21 205 0.0 20.9 0.00 0.00 0.00 61 1006.0
20260506072528 21 251 9.7 20.9 0.00 0.00 0.00 62 1006.0
20260506072426 21 227 1.6 20.9 0.00 0.00 0.00 60 1006.0
20260506072327 21 145 0.0 20.9 0.00 0.00 0.00 60 1006.0
20260506072227 21 182 0.0 20.9 0.00 0.00 0.00 61 1006.2
20260506072126 21 207 0.0 20.9 0.00 0.00 0.00 62 1006.2
20260506072027 21 193 0.0 20.9 0.00 0.00 0.00 62 1006.0
20260506071926 21 271 4.8 20.9 0.00 0.00 0.00 62 1006.0
20260506071828 21 226 4.8 11.3 0.00 0.00 0.00 61 1006.0
20260506071726 21 177 0.0 16.1 0.00 0.00 0.00 62 1005.9
20260506071626 21 222 1.6 16.1 0.00 0.00 0.00 61 1005.9
20260506071515 21 185 1.6 16.1 0.00 0.00 0.00 61 1006.3
20260506071431 21 177 0.0 17.7 0.00 0.00 0.00 61 1006.2
20260506071416 21 218 1.6 17.7 0.00 0.00 0.00 62 1006.2
20260506071058 20 184 0.0 17.7 0.00 0.00 0.00 63 1006.0
20260506071004 20 196 0.0 17.7 0.00 0.00 0.00 64 1006.0
20260506070956 20 203 0.0 17.7 0.00 0.00 0.00 64 1006.0
20260506070856 20 138 0.0 17.7 0.00 0.00 0.00 64 1006.0
20260506070821 20 192 0.0 17.7 0.00 0.00 0.00 64 1006.0
20260506070806 20 211 9.7 17.7 0.00 0.00 0.00 63 1005.9
20260506070455 21 144 12.9 17.7 0.00 0.00 0.00 61 1005.9
20260506070445 21 231 4.8 14.5 0.00 0.00 0.00 61 1005.9
20260506070337 20 184 0.0 11.3 0.00 0.00 0.00 62 1006.2
20260506070236 20 177 0.0 11.3 0.00 0.00 0.00 63 1005.9
20260506070133 20 190 6.4 11.3 0.00 0.00 0.00 63 1006.2
20260506062510 18 174 3.2 25.7 0.00 0.00 0.00 66 1005.8
20260506062222 18 200 6.4 25.7 0.00 0.00 0.00 66 1005.7
20260506062207 18 20 8.0 25.7 0.00 0.00 0.00 66 1005.8
20260506061920 18 232 1.6 25.7 0.00 0.00 0.00 66 1005.7
20260506061845 18 243 1.6 25.7 0.00 0.00 0.00 65 1005.7
20260506061746 18 179 3.2 20.9 0.00 0.00 0.00 65 1006.0
20260506061645 18 268 6.4 20.9 0.00 0.00 0.00 66 1005.9
20260506061545 18 210 3.2 20.9 0.00 0.00 0.00 66 1005.9
20260506061520 18 165 1.6 20.9 0.00 0.00 0.00 65 1005.7
20260506061507 18 233 6.4 20.9 0.00 0.00 0.00 66 1005.7
20260506061456 18 125 3.2 20.9 0.00 0.00 0.00 66 1005.7
20260506061441 18 216 6.4 20.9 0.00 0.00 0.00 66 1005.8
20260506061206 18 98 0.0 14.5 0.00 0.00 0.00 65 1005.6
20260506060926 18 163 0.0 14.5 0.00 0.00 0.00 65 1005.9
20260506060916 18 207 8.0 17.7 0.00 0.00 0.00 65 1005.9
20260506060901 18 216 8.0 17.7 0.00 0.00 0.00 66 1005.8
20260506060540 18 271 8.0 17.7 0.00 0.00 0.00 65 1005.9
20260506060439 18 198 0.0 17.7 0.00 0.00 0.00 65 1005.8
20260506060411 18 204 3.2 17.7 0.00 0.00 0.00 65 1005.6
20260506060339 18 229 3.2 20.9 0.00 0.00 0.00 65 1005.6
20260506060238 18 246 9.7 24.1 0.00 0.00 0.00 65 1005.6
20260506060138 18 141 1.6 24.1 0.00 0.00 0.00 65 1005.8
20260506051144 17 247 6.4 14.5 0.00 0.00 0.00 66 1005.6
20260506051128 17 212 3.2 14.5 0.00 0.00 0.00 66 1005.5
20260506051105 17 217 8.0 14.5 0.00 0.00 0.00 66 1005.6
20260506051049 17 113 1.6 14.5 0.00 0.00 0.00 66 1005.5
20260506051034 17 223 4.8 14.5 0.00 0.00 0.00 66 1005.4
20260506050758 17 236 9.7 14.5 0.00 0.00 0.00 65 1005.5
20260506050526 17 180 0.0 11.3 0.00 0.00 0.00 66 1005.7
20260506050514 17 203 0.0 11.3 0.00 0.00 0.00 67 1005.3
20260506044823 17 205 3.2 9.7 0.00 0.00 0.00 68 1005.5
20260506044815 17 233 6.4 9.7 0.00 0.00 0.00 68 1005.5
20260506044714 17 225 3.2 9.7 0.00 0.00 0.00 67 1005.4
20260506044614 17 194 3.2 9.7 0.00 0.00 0.00 67 1005.5
20260506044516 17 192 0.0 4.8 0.00 0.00 0.00 67 1005.7
20260506044459 16 199 0.0 4.8 0.00 0.00 0.00 67 1005.6
20260506044443 16 194 0.0 4.8 0.00 0.00 0.00 68 1005.3
20260506044436 16 193 0.0 4.8 0.00 0.00 0.00 68 1005.3
20260506044115 16 204 1.6 4.8 0.00 0.00 0.00 69 1005.6
20260506044015 16 211 0.0 4.8 0.00 0.00 0.00 68 1005.4
20260506043914 16 205 0.0 4.8 0.00 0.00 0.00 68 1005.4
20260506043814 16 213 1.6 4.8 0.00 0.00 0.00 69 1005.5
20260506043711 16 220 3.2 4.8 0.00 0.00 0.00 68 1005.5
20260506043611 16 211 0.0 4.8 0.00 0.00 0.00 68 1005.4
20260506043509 16 209 1.6 4.8 0.00 0.00 0.00 69 1005.5
20260506043410 16 229 4.8 4.8 0.00 0.00 0.00 68 1005.6
20260506043318 16 198 0.0 4.8 0.00 0.00 0.00 69 1005.5
20260506043309 16 201 0.0 4.8 0.00 0.00 0.00 69 1005.5
20260506043208 16 213 1.6 4.8 0.00 0.00 0.00 68 1005.3
20260506043108 16 208 0.0 4.8 0.00 0.00 0.00 68 1005.4
20260506043008 16 204 0.0 1.6 0.00 0.00 0.00 68 1005.4
20260506042909 16 206 0.0 1.6 0.00 0.00 0.00 67 1005.5
20260506042808 16 201 0.0 1.6 0.00 0.00 0.00 68 1005.5
20260506042709 16 193 0.0 0.0 0.00 0.00 0.00 69 1005.4
20260506042608 16 193 0.0 0.0 0.00 0.00 0.00 69 1005.5
20260506042503 15 184 0.0 0.0 0.00 0.00 0.00 70 1005.2
20260506042440 15 193 0.0 0.0 0.00 0.00 0.00 70 1005.3
20260506042424 15 194 0.0 0.0 0.00 0.00 0.00 70 1005.6
20260506042416 15 195 0.0 0.0 0.00 0.00 0.00 70 1005.6
20260506042052 15 192 0.0 0.0 0.00 0.00 0.00 70 1005.5
20260506041952 15 195 0.0 0.0 0.00 0.00 0.00 70 1005.3
20260506041851 15 193 0.0 0.0 0.00 0.00 0.00 70 1005.2
20260506041810 15 190 0.0 0.0 0.00 0.00 0.00 70 1005.5
20260506041748 15 190 0.0 0.0 0.00 0.00 0.00 70 1005.5
20260506041646 15 194 0.0 0.0 0.00 0.00 0.00 70 1005.4
20260506041607 15 196 0.0 0.0 0.00 0.00 0.00 70 1005.5
20260506041553 15 196 0.0 0.0 0.00 0.00 0.00 70 1005.5
20260506041307 15 196 0.0 0.0 0.00 0.00 0.00 70 1005.2
20260506041233 15 198 0.0 0.0 0.00 0.00 0.00 71 1005.5
20260506041133 15 214 0.0 0.0 0.00 0.00 0.00 72 1005.3
20260506041033 14 196 0.0 0.0 0.00 0.00 0.00 72 1005.5
20260506040933 14 196 0.0 0.0 0.00 0.00 0.00 73 1005.4
20260506040805 14 199 0.0 0.0 0.00 0.00 0.00 73 1005.1
20260506040732 14 199 0.0 0.0 0.00 0.00 0.00 73 1005.3
20260506040628 13 200 0.0 0.0 0.00 0.00 0.00 73 1005.3
20260506040556 13 192 0.0 0.0 0.00 0.00 0.00 74 1005.5
20260506040549 13 202 0.0 0.0 0.00 0.00 0.00 74 1005.3
20260506040533 13 203 0.0 0.0 0.00 0.00 0.00 74 1005.5
20260506040517 13 198 0.0 0.0 0.00 0.00 0.00 74 1005.5
20260506040228 13 188 0.0 0.0 0.00 0.00 0.00 74 1005.3
20260506040202 13 187 0.0 0.0 0.00 0.00 0.00 74 1005.4
20260506040146 13 188 0.0 0.0 0.00 0.00 0.00 74 1005.2
20260506035826 13 185 0.0 0.0 0.00 0.00 0.00 74 1005.2
20260506035758 13 185 0.0 0.0 0.00 0.00 0.00 74 1005.2
20260506035727 13 184 0.0 0.0 0.00 0.00 0.00 74 1005.2
20260506035622 13 184 0.0 0.0 0.00 0.00 0.00 74 1005.2
20260506035521 13 181 0.0 0.0 0.00 0.00 0.00 74 1005.4
20260506035422 13 180 0.0 0.0 0.00 0.00 0.00 74 1005.5
20260506035406 13 182 0.0 0.0 0.00 0.00 0.00 74 1005.2
20260506035353 13 178 0.0 1.6 0.00 0.00 0.00 74 1005.2
20260506035341 13 180 0.0 1.6 0.00 0.00 0.00 74 1005.4
20260506035020 13 195 0.0 3.2 0.00 0.00 0.00 74 1005.3
20260506034916 13 194 0.0 3.2 0.00 0.00 0.00 74 1005.4
20260506034857 13 194 0.0 3.2 0.00 0.00 0.00 74 1005.4
20260506034844 13 196 0.0 3.2 0.00 0.00 0.00 74 1005.4
20260506034835 13 192 0.0 3.2 0.00 0.00 0.00 74 1005.3
20260506034551 13 191 0.0 6.4 0.00 0.00 0.00 74 1005.5
20260506034535 13 193 0.0 6.4 0.00 0.00 0.00 73 1005.2
20260506034520 13 198 0.0 6.4 0.00 0.00 0.00 73 1005.4
20260506034506 13 199 0.0 6.4 0.00 0.00 0.00 73 1005.4
20260506034455 13 201 0.0 6.4 0.00 0.00 0.00 73 1005.3
20260506033915 13 197 1.6 6.4 0.00 0.00 0.00 73 1005.3
20260506033845 13 215 3.2 6.4 0.00 0.00 0.00 73 1005.1
20260506033831 13 198 1.6 6.4 0.00 0.00 0.00 73 1005.1
20260506033822 13 211 1.6 6.4 0.00 0.00 0.00 73 1005.3
20260506033807 13 226 3.2 6.4 0.00 0.00 0.00 73 1005.3
20260506033530 13 212 3.2 4.8 0.00 0.00 0.00 73 1005.2
20260506033243 13 200 1.6 4.8 0.00 0.00 0.00 73 1005.2
20260506033211 13 211 3.2 4.8 0.00 0.00 0.00 73 1005.3
20260506033110 13 228 3.2 4.8 0.00 0.00 0.00 73 1005.2
20260506033010 13 228 3.2 4.8 0.00 0.00 0.00 73 1005.1
20260506032910 13 202 3.2 4.8 0.00 0.00 0.00 73 1005.3
20260506032809 13 220 3.2 4.8 0.00 0.00 0.00 73 1005.3
20260506032742 13 215 1.6 4.8 0.00 0.00 0.00 73 1005.3
20260506032709 13 196 1.6 4.8 0.00 0.00 0.00 73 1005.1
20260506032608 13 219 1.6 4.8 0.00 0.00 0.00 73 1005.2
20260506032511 13 210 1.6 4.8 0.00 0.00 0.00 73 1005.2
20260506032410 13 226 3.2 4.8 0.00 0.00 0.00 73 1005.3
20260506032354 13 212 4.8 4.8 0.00 0.00 0.00 73 1005.4
20260506032340 13 218 3.2 4.8 0.00 0.00 0.00 73 1005.4
20260506032329 13 212 0.0 4.8 0.00 0.00 0.00 73 1005.3
20260506032041 13 219 4.8 4.8 0.00 0.00 0.00 72 1005.1
20260506032024 13 234 3.2 4.8 0.00 0.00 0.00 72 1005.1
20260506031736 13 225 3.2 4.8 0.00 0.00 0.00 72 1005.2
20260506031706 13 207 1.6 4.8 0.00 0.00 0.00 72 1005.2
20260506031606 13 211 0.0 4.8 0.00 0.00 0.00 72 1005.4
20260506031531 13 228 4.8 4.8 0.00 0.00 0.00 72 1005.5
20260506031524 13 204 0.0 4.8 0.00 0.00 0.00 72 1005.3
20260506031508 13 209 1.6 4.8 0.00 0.00 0.00 72 1005.2
20260506031453 13 214 1.6 4.8 0.00 0.00 0.00 72 1005.5
20260506031203 13 212 1.6 4.8 0.00 0.00 0.00 72 1005.3
20260506031103 13 212 1.6 4.8 0.00 0.00 0.00 72 1005.2
20260506031004 13 211 1.6 4.8 0.00 0.00 0.00 72 1005.2
20260506030903 13 208 0.0 4.8 0.00 0.00 0.00 72 1005.2
20260506030802 13 214 1.6 4.8 0.00 0.00 0.00 72 1005.3
20260506030734 13 212 3.2 4.8 0.00 0.00 0.00 72 1005.3
20260506030702 14 199 0.0 4.8 0.00 0.00 0.00 72 1005.3
20260506030632 14 213 1.6 4.8 0.00 0.00 0.00 71 1005.1
20260506030617 14 206 0.0 6.4 0.00 0.00 0.00 71 1005.3
20260506030601 14 212 0.0 6.4 0.00 0.00 0.00 71 1005.2
20260506030328 14 198 0.0 6.4 0.00 0.00 0.00 71 1005.3
20260506030317 14 196 0.0 11.3 0.00 0.00 0.00 71 1005.3
20260506025958 14 202 0.0 11.3 0.00 0.00 0.00 71 1005.3
20260506025857 14 207 1.6 11.3 0.00 0.00 0.00 71 1005.4
20260506025803 14 210 1.6 11.3 0.00 0.00 0.00 70 1005.4
20260506025750 14 203 0.0 11.3 0.00 0.00 0.00 70 1005.3
20260506025741 14 214 0.0 11.3 0.00 0.00 0.00 70 1005.3
20260506025717 14 215 3.2 11.3 0.00 0.00 0.00 70 1005.2
20260506025406 15 216 1.6 6.4 0.00 0.00 0.00 68 1005.3
20260506025400 14 186 3.2 11.3 0.00 0.00 0.00 70 1005.3
20260506025349 15 211 0.0 3.2 0.00 0.00 0.00 67 1005.3
20260506025339 14 198 3.2 11.3 0.00 0.00 0.00 70 1005.2
20260506025326 14 231 1.6 9.7 0.00 0.00 0.00 70 1005.1
20260506025315 14 222 6.4 9.7 0.00 0.00 0.00 70 1005.1
20260506025300 14 223 3.2 6.4 0.00 0.00 0.00 70 1005.2
20260506025243 14 194 0.0 6.4 0.00 0.00 0.00 70 1005.3
20260506025226 14 208 3.2 6.4 0.00 0.00 0.00 70 1005.5
20260506024953 14 213 0.0 3.2 0.00 0.00 0.00 70 1005.3
20260506024931 14 199 0.0 3.2 0.00 0.00 0.00 69 1005.3
20260506024916 14 205 1.6 4.8 0.00 0.00 0.00 69 1005.4
20260506024900 14 201 0.0 4.8 0.00 0.00 0.00 69 1005.4
20260506024407 14 203 0.0 6.4 0.00 0.00 0.00 69 1005.6
20260506024343 14 199 0.0 6.4 0.00 0.00 0.00 69 1005.6
20260506024328 14 203 0.0 6.4 0.00 0.00 0.00 69 1005.4
20260506024311 15 198 0.0 6.4 0.00 0.00 0.00 69 1005.2
20260506024035 15 186 0.0 6.4 0.00 0.00 0.00 68 1005.3
20260506023809 15 217 0.0 6.4 0.00 0.00 0.00 68 1005.3
20260506023753 15 223 3.2 6.4 0.00 0.00 0.00 68 1005.3
20260506023737 15 220 0.0 6.4 0.00 0.00 0.00 68 1005.3
20260506023722 15 229 3.2 6.4 0.00 0.00 0.00 68 1005.5
20260506023706 15 212 0.0 4.8 0.00 0.00 0.00 68 1005.2
20260506023653 15 206 1.6 4.8 0.00 0.00 0.00 68 1005.3
20260506023200 15 216 3.2 4.8 0.00 0.00 0.00 67 1005.4
20260506022924 15 206 1.6 3.2 0.00 0.00 0.00 67 1005.3
20260506022634 15 213 3.2 3.2 0.00 0.00 0.00 68 1005.3
20260506022608 15 203 0.0 3.2 0.00 0.00 0.00 68 1005.3
20260506022553 15 217 0.0 4.8 0.00 0.00 0.00 67 1005.2
20260506022234 15 204 0.0 4.8 0.00 0.00 0.00 67 1005.4
20260506022207 15 239 0.0 4.8 0.00 0.00 0.00 67 1005.4
20260506022133 15 202 0.0 4.8 0.00 0.00 0.00 67 1005.2
20260506022052 15 212 0.0 4.8 0.00 0.00 0.00 67 1005.4
20260506022038 15 204 0.0 4.8 0.00 0.00 0.00 67 1005.4
20260506022024 15 200 0.0 4.8 0.00 0.00 0.00 67 1005.5
20260506021753 15 196 0.0 4.8 0.00 0.00 0.00 67 1005.2
20260506021743 15 204 1.6 9.7 0.00 0.00 0.00 67 1005.4
20260506021424 15 199 0.0 9.7 0.00 0.00 0.00 67 1005.3
20260506021326 15 213 1.6 9.7 0.00 0.00 0.00 67 1005.4
20260506021310 15 187 0.0 9.7 0.00 0.00 0.00 67 1005.3
20260506021257 15 185 0.0 9.7 0.00 0.00 0.00 67 1005.3
20260506021248 15 176 0.0 9.7 0.00 0.00 0.00 67 1005.3
20260506021001 15 222 6.4 9.7 0.00 0.00 0.00 67 1005.2
20260506020951 15 204 0.0 9.7 0.00 0.00 0.00 67 1005.3
20260506020935 15 205 0.0 9.7 0.00 0.00 0.00 67 1005.3
20260506020920 15 209 0.0 9.7 0.00 0.00 0.00 67 1005.2
20260506020652 15 212 3.2 12.9 0.00 0.00 0.00 66 1005.4
20260506020636 15 219 1.6 12.9 0.00 0.00 0.00 66 1005.1
20260506020316 15 220 3.2 12.9 0.00 0.00 0.00 66 1005.4
20260506020216 15 196 3.2 12.9 0.00 0.00 0.00 66 1005.3
20260506020203 15 226 1.6 12.9 0.00 0.00 0.00 66 1005.3
20260506020152 15 234 8.0 12.9 0.00 0.00 0.00 66 1005.3
20260506020135 15 187 1.6 12.9 0.00 0.00 0.00 66 1005.2
20260506015807 15 225 3.2 12.9 0.00 0.00 0.00 66 1005.2
20260506015731 15 274 4.8 11.3 0.00 0.00 0.00 66 1005.1
20260506015723 15 214 1.6 12.9 0.00 0.00 0.00 66 1005.4
20260506015711 15 225 8.0 12.9 0.00 0.00 0.00 66 1005.4
20260506015701 15 175 0.0 12.9 0.00 0.00 0.00 66 1005.4
20260506015647 15 227 6.4 12.9 0.00 0.00 0.00 66 1005.5
20260506015422 15 230 6.4 11.3 0.00 0.00 0.00 66 1005.3
20260506015407 15 223 1.6 11.3 0.00 0.00 0.00 66 1005.3
20260506015347 15 274 4.8 11.3 0.00 0.00 0.00 66 1005.1
20260506015027 15 223 4.8 11.3 0.00 0.00 0.00 66 1005.4
20260506014958 15 205 3.2 11.3 0.00 0.00 0.00 66 1005.2
20260506014942 15 229 4.8 11.3 0.00 0.00 0.00 66 1005.4
20260506014625 15 237 8.0 11.3 0.00 0.00 0.00 66 1005.3
20260506014604 15 237 8.0 11.3 0.00 0.00 0.00 66 1005.3
20260506014505 15 232 1.6 6.4 0.00 0.00 0.00 66 1005.2
20260506014405 15 235 3.2 6.4 0.00 0.00 0.00 66 1005.2
20260506014256 15 208 0.0 6.4 0.00 0.00 0.00 66 1005.4
20260506014229 15 211 0.0 6.4 0.00 0.00 0.00 66 1005.3
20260506014217 15 207 0.0 6.4 0.00 0.00 0.00 66 1005.3
20260506014205 15 237 4.8 6.4 0.00 0.00 0.00 66 1005.3
20260506013915 15 192 0.0 0.0 0.00 0.00 0.00 66 1005.2
20260506013907 14 203 0.0 1.6 0.00 0.00 0.00 66 1005.3
20260506013852 15 192 0.0 0.0 0.00 0.00 0.00 66 1005.3
20260506013834 15 192 0.0 0.0 0.00 0.00 0.00 66 1005.2
20260506013535 15 196 0.0 0.0 0.00 0.00 0.00 66 1005.2
20260506013434 15 197 0.0 0.0 0.00 0.00 0.00 65 1005.3
20260506013333 15 197 0.0 0.0 0.00 0.00 0.00 65 1005.2
20260506013233 15 197 0.0 0.0 0.00 0.00 0.00 65 1005.3
20260506013212 15 199 0.0 0.0 0.00 0.00 0.00 65 1005.2
20260506013200 15 200 0.0 0.0 0.00 0.00 0.00 65 1005.2
20260506013146 15 194 0.0 0.0 0.00 0.00 0.00 65 1005.1
20260506012839 15 192 0.0 0.0 0.00 0.00 0.00 63 1005.0
20260506012833 15 206 0.0 0.0 0.00 0.00 0.00 65 1005.1
20260506012818 14 196 0.0 0.0 0.00 0.00 0.00 65 1005.0
20260506012803 14 194 0.0 0.0 0.00 0.00 0.00 66 1005.1
20260506012751 14 192 0.0 0.0 0.00 0.00 0.00 66 1005.1
20260506012532 14 188 0.0 0.0 0.00 0.00 0.00 67 1005.2
20260506012517 14 188 0.0 0.0 0.00 0.00 0.00 67 1005.1
20260506012501 14 188 0.0 0.0 0.00 0.00 0.00 68 1004.9
20260506012225 14 188 0.0 0.0 0.00 0.00 0.00 68 1005.2
20260506012212 14 188 0.0 0.0 0.00 0.00 0.00 67 1005.2
20260506012200 14 189 0.0 0.0 0.00 0.00 0.00 67 1005.2
20260506011936 14 188 0.0 0.0 0.00 0.00 0.00 67 1005.2
20260506011920 14 188 0.0 0.0 0.00 0.00 0.00 67 1005.1
20260506011905 15 189 0.0 0.0 0.00 0.00 0.00 67 1005.1
20260506011849 15 189 0.0 0.0 0.00 0.00 0.00 67 1005.0
20260506011837 15 190 0.0 0.0 0.00 0.00 0.00 66 1005.0
20260506011827 15 191 0.0 0.0 0.00 0.00 0.00 65 1005.3
20260506011810 15 191 0.0 0.0 0.00 0.00 0.00 64 1005.2
20260506011755 15 191 0.0 0.0 0.00 0.00 0.00 63 1005.1
20260506011048 15 192 0.0 0.0 0.00 0.00 0.00 63 1005.0
20260506011034 15 194 0.0 0.0 0.00 0.00 0.00 63 1005.3
20260506011018 15 194 0.0 0.0 0.00 0.00 0.00 62 1005.1
20260506011003 15 181 0.0 0.0 0.00 0.00 0.00 62 1004.9
20260506010941 15 180 0.0 0.0 0.00 0.00 0.00 62 1005.2
20260506010924 15 181 0.0 0.0 0.00 0.00 0.00 62 1005.0
20260506010649 16 181 0.0 3.2 0.00 0.00 0.00 62 1005.0
20260506010407 16 187 0.0 3.2 0.00 0.00 0.00 61 1005.2
20260506005920 16 192 0.0 4.8 0.00 0.00 0.00 60 1005.2
20260506005904 16 193 0.0 4.8 0.00 0.00 0.00 59 1005.3
20260506005847 16 198 0.0 4.8 0.00 0.00 0.00 59 1004.9
20260506005830 16 198 0.0 4.8 0.00 0.00 0.00 59 1005.2
20260506005605 16 200 0.0 4.8 0.00 0.00 0.00 59 1005.2
20260506005321 16 210 1.6 4.8 0.00 0.00 0.00 59 1005.3
20260506005306 16 204 0.0 4.8 0.00 0.00 0.00 59 1005.2
20260506005037 16 218 1.6 0.0 0.00 0.00 0.00 59 1005.4
20260506004730 16 218 1.6 4.8 0.00 0.00 0.00 59 1005.4
20260506004628 16 225 3.2 4.8 0.00 0.00 0.00 59 1005.5
20260506004531 16 224 3.2 4.8 0.00 0.00 0.00 59 1005.3
20260506004522 16 213 3.2 4.8 0.00 0.00 0.00 59 1005.3
20260506004417 16 204 0.0 6.4 0.00 0.00 0.00 59 1005.4
20260506004317 16 201 0.0 6.4 0.00 0.00 0.00 59 1005.3
20260506004217 16 200 0.0 6.4 0.00 0.00 0.00 59 1005.3
20260506004117 16 210 0.0 6.4 0.00 0.00 0.00 59 1005.3
20260506004025 16 207 1.6 6.4 0.00 0.00 0.00 59 1005.2
20260506004004 16 225 1.6 6.4 0.00 0.00 0.00 59 1005.2
20260506003903 16 204 0.0 6.4 0.00 0.00 0.00 58 1005.2
20260506003803 16 206 3.2 6.4 0.00 0.00 0.00 58 1005.5
20260506003705 16 186 0.0 9.7 0.00 0.00 0.00 58 1005.4
20260506003603 16 217 1.6 9.7 0.00 0.00 0.00 58 1005.5
20260506003524 17 200 0.0 9.7 0.00 0.00 0.00 58 1005.4
20260506003517 17 225 4.8 12.9 0.00 0.00 0.00 57 1005.1
20260506003512 17 218 3.2 9.7 0.00 0.00 0.00 58 1005.4
20260506003455 17 211 1.6 9.7 0.00 0.00 0.00 58 1005.4
20260506003440 17 207 0.0 9.7 0.00 0.00 0.00 58 1005.3
20260506003214 17 223 3.2 9.7 0.00 0.00 0.00 58 1005.1
20260506003157 17 209 0.0 12.9 0.00 0.00 0.00 58 1005.5
20260506003142 17 209 3.2 12.9 0.00 0.00 0.00 58 1005.2
20260506003135 17 206 1.6 12.9 0.00 0.00 0.00 58 1005.2
20260506003119 17 199 1.6 12.9 0.00 0.00 0.00 57 1005.4
20260506003103 17 199 3.2 12.9 0.00 0.00 0.00 57 1005.1
20260506002828 17 226 4.8 12.9 0.00 0.00 0.00 57 1005.4
20260506002559 17 205 1.6 12.9 0.00 0.00 0.00 57 1005.1
20260506002140 17 236 8.0 11.3 0.00 0.00 0.00 56 1005.2
20260506002039 17 194 1.6 11.3 0.00 0.00 0.00 57 1005.4
20260506002011 17 193 1.6 6.4 0.00 0.00 0.00 57 1005.3
20260506001930 17 199 0.0 6.4 0.00 0.00 0.00 56 1005.3
20260506001849 17 210 0.0 6.4 0.00 0.00 0.00 56 1005.2
20260506001832 17 211 3.2 6.4 0.00 0.00 0.00 56 1005.1
20260506001817 17 227 3.2 6.4 0.00 0.00 0.00 56 1005.4
20260506001801 17 228 1.6 6.4 0.00 0.00 0.00 56 1005.4
20260506001748 17 194 0.0 6.4 0.00 0.00 0.00 56 1005.3
20260506001740 17 177 0.0 6.4 0.00 0.00 0.00 56 1005.4
20260506001502 17 207 1.6 11.3 0.00 0.00 0.00 56 1005.5
20260506000954 17 210 1.6 11.3 0.00 0.00 0.00 56 1005.1
20260506000922 17 224 0.0 11.3 0.00 0.00 0.00 56 1005.2
20260506000851 17 220 3.2 11.3 0.00 0.00 0.00 56 1005.3
20260506000834 17 221 1.6 11.3 0.00 0.00 0.00 56 1005.3
20260506000817 17 194 0.0 11.3 0.00 0.00 0.00 56 1005.3
20260506000802 17 194 0.0 11.3 0.00 0.00 0.00 55 1005.1
20260506000749 17 204 3.2 11.3 0.00 0.00 0.00 55 1005.1
20260506000213 17 214 6.4 9.7 0.00 0.00 0.00 55 1005.2
20260506000134 17 172 0.0 14.5 0.00 0.00 0.00 55 1005.4
20260506000117 17 205 3.2 17.7 0.00 0.00 0.00 55 1005.4
20260506000104 17 202 0.0 17.7 0.00 0.00 0.00 55 1005.4
20260506000045 17 226 1.6 17.7 0.00 0.00 0.00 55 1005.4
20260506000029 17 211 6.4 17.7 0.00 0.00 0.00 55 1005.2
20260506000014 17 204 3.2 17.7 0.00 0.00 0.00 55 1005.4
20260505235520 17 225 3.2 17.7 0.00 0.00 0.00 55 1005.3
20260505235511 17 203 0.0 17.7 0.00 0.00 0.00 55 1005.2
20260505235455 17 204 3.2 17.7 0.00 0.00 0.00 55 1005.5
20260505235437 18 221 4.8 17.7 0.00 0.00 0.00 55 1005.4
20260505235421 18 222 3.2 14.5 0.00 0.00 0.00 55 1005.2
20260505235405 18 153 0.0 14.5 0.00 0.00 0.00 55 1005.6
20260505235352 18 213 6.4 14.5 0.00 0.00 0.00 55 1005.4
20260505234557 18 233 3.2 12.9 0.00 0.00 0.00 55 1005.4
20260505234457 18 219 1.6 12.9 0.00 0.00 0.00 55 1005.4
20260505234429 18 214 3.2 12.9 0.00 0.00 0.00 55 1005.3
20260505234359 18 215 3.2 12.9 0.00 0.00 0.00 55 1005.3
20260505234258 18 206 3.2 17.7 0.00 0.00 0.00 55 1005.3
20260505234157 18 210 6.4 17.7 0.00 0.00 0.00 54 1005.5
20260505234044 18 216 3.2 17.7 0.00 0.00 0.00 54 1005.6
20260505233945 18 235 6.4 17.7 0.00 0.00 0.00 54 1005.5
20260505233931 18 227 6.4 17.7 0.00 0.00 0.00 54 1005.4
20260505233845 18 232 6.4 17.7 0.00 0.00 0.00 54 1005.4
20260505233745 18 234 6.4 17.7 0.00 0.00 0.00 54 1005.5
20260505233645 18 235 6.4 17.7 0.00 0.00 0.00 54 1005.6
20260505233545 18 218 1.6 17.7 0.00 0.00 0.00 54 1005.6
20260505233422 18 207 9.7 17.7 0.00 0.00 0.00 54 1005.5
20260505233341 18 230 8.0 17.7 0.00 0.00 0.00 54 1005.5
20260505233241 18 237 9.7 17.7 0.00 0.00 0.00 54 1005.4
20260505233140 18 215 3.2 17.7 0.00 0.00 0.00 54 1005.5
20260505233038 18 220 14.5 17.7 0.00 0.00 0.00 54 1005.7
20260505232936 18 192 0.0 16.1 0.00 0.00 0.00 54 1005.6
20260505232920 18 188 3.2 16.1 0.00 0.00 0.00 54 1005.6
20260505232834 18 233 6.4 16.1 0.00 0.00 0.00 54 1005.5
20260505232800 18 217 12.9 27.4 0.00 0.00 0.00 54 1005.6
20260505232752 18 233 4.8 16.1 0.00 0.00 0.00 54 1005.7
20260505232736 18 208 6.4 16.1 0.00 0.00 0.00 54 1005.7
20260505232719 18 184 3.2 16.1 0.00 0.00 0.00 54 1005.7
20260505232657 18 94 3.2 16.1 0.00 0.00 0.00 54 1005.7
20260505232640 18 181 3.2 16.1 0.00 0.00 0.00 54 1005.7
20260505232623 18 200 1.6 27.4 0.00 0.00 0.00 54 1005.6
20260505232608 18 186 1.6 27.4 0.00 0.00 0.00 54 1005.7
20260505231816 18 219 1.6 27.4 0.00 0.00 0.00 55 1005.7
20260505231716 18 219 4.8 27.4 0.00 0.00 0.00 55 1005.6
20260505231615 18 229 0.0 27.4 0.00 0.00 0.00 55 1006.0
20260505231515 18 213 0.0 27.4 0.00 0.00 0.00 55 1005.7
20260505231415 18 200 3.2 27.4 0.00 0.00 0.00 54 1005.7
20260505231316 18 254 22.5 27.4 0.00 0.00 0.00 54 1005.9
20260505231241 18 220 4.8 14.5 0.00 0.00 0.00 54 1005.6
20260505231224 18 196 0.0 14.5 0.00 0.00 0.00 55 1005.5
20260505230904 18 229 9.7 22.5 0.00 0.00 0.00 54 1005.6
20260505230804 18 201 3.2 22.5 0.00 0.00 0.00 54 1005.7
20260505230704 18 196 3.2 22.5 0.00 0.00 0.00 54 1005.8
20260505230603 18 179 3.2 22.5 0.00 0.00 0.00 54 1005.8
20260505230504 18 214 1.6 22.5 0.00 0.00 0.00 54 1005.6
20260505230406 18 156 1.6 22.5 0.00 0.00 0.00 54 1005.6
20260505230336 18 199 1.6 22.5 0.00 0.00 0.00 54 1005.6
20260505230016 18 219 16.1 22.5 0.00 0.00 0.00 53 1005.6
20260505225916 18 227 3.2 22.5 0.00 0.00 0.00 54 1005.7
20260505225816 18 189 6.4 22.5 0.00 0.00 0.00 54 1005.7
20260505225717 18 200 6.4 22.5 0.00 0.00 0.00 54 1005.8
20260505225617 18 213 9.7 22.5 0.00 0.00 0.00 55 1005.7
20260505225538 18 196 4.8 12.9 0.00 0.00 0.00 56 1006.0
20260505225531 18 232 6.4 11.3 0.00 0.00 0.00 56 1005.8
20260505225525 18 213 4.8 22.5 0.00 0.00 0.00 55 1005.9
20260505225510 18 229 4.8 22.5 0.00 0.00 0.00 56 1005.8
20260505225448 18 154 1.6 22.5 0.00 0.00 0.00 55 1005.7
20260505225431 18 201 4.8 22.5 0.00 0.00 0.00 55 1005.8
20260505225154 18 148 4.8 20.9 0.00 0.00 0.00 55 1005.8
20260505224929 18 239 9.7 17.7 0.00 0.00 0.00 55 1005.5
20260505224913 18 192 4.8 17.7 0.00 0.00 0.00 56 1005.7
20260505224907 18 192 4.8 17.7 0.00 0.00 0.00 56 1005.7
20260505224850 18 204 3.2 17.7 0.00 0.00 0.00 56 1005.8
20260505224835 18 194 6.4 17.7 0.00 0.00 0.00 56 1005.7
20260505224819 18 213 8.0 12.9 0.00 0.00 0.00 56 1005.9
20260505224803 18 240 8.0 11.3 0.00 0.00 0.00 56 1005.8
20260505224536 18 208 0.0 11.3 0.00 0.00 0.00 56 1005.8
20260505224037 18 209 3.2 11.3 0.00 0.00 0.00 56 1006.2
20260505224022 18 204 1.6 11.3 0.00 0.00 0.00 56 1005.9
20260505223748 18 202 0.0 12.9 0.00 0.00 0.00 56 1006.0
20260505223742 18 194 3.2 12.9 0.00 0.00 0.00 56 1006.0
20260505223727 18 192 1.6 12.9 0.00 0.00 0.00 56 1006.0
20260505223711 18 218 6.4 12.9 0.00 0.00 0.00 56 1005.9
20260505223656 18 207 0.0 12.9 0.00 0.00 0.00 56 1005.9
20260505223640 18 240 6.4 12.9 0.00 0.00 0.00 56 1006.0
20260505223413 18 208 3.2 12.9 0.00 0.00 0.00 56 1005.8
20260505223146 18 186 1.6 12.9 0.00 0.00 0.00 55 1006.0
20260505223130 18 214 0.0 12.9 0.00 0.00 0.00 56 1006.0
20260505223115 18 190 0.0 12.9 0.00 0.00 0.00 56 1005.9
20260505222841 18 212 6.4 6.4 0.00 0.00 0.00 56 1005.9
20260505222833 18 220 3.2 6.4 0.00 0.00 0.00 56 1005.7
20260505222817 18 200 0.0 9.7 0.00 0.00 0.00 56 1005.7
20260505222554 18 206 3.2 9.7 0.00 0.00 0.00 56 1005.8
20260505222537 18 227 6.4 12.9 0.00 0.00 0.00 56 1005.8
20260505222521 18 213 3.2 12.9 0.00 0.00 0.00 56 1006.0
20260505222255 18 218 3.2 12.9 0.00 0.00 0.00 56 1005.8
20260505222236 18 243 3.2 12.9 0.00 0.00 0.00 56 1005.9
20260505222221 18 245 4.8 12.9 0.00 0.00 0.00 56 1006.0
20260505221946 18 196 0.0 12.9 0.00 0.00 0.00 56 1005.9
20260505221933 18 209 1.6 12.9 0.00 0.00 0.00 55 1005.9
20260505221616 18 229 4.8 12.9 0.00 0.00 0.00 55 1005.8
20260505221547 18 198 0.0 12.9 0.00 0.00 0.00 56 1006.2
20260505221530 18 201 0.0 12.9 0.00 0.00 0.00 55 1006.2
20260505221514 18 196 3.2 12.9 0.00 0.00 0.00 55 1005.8
20260505221501 18 232 4.8 14.5 0.00 0.00 0.00 55 1005.8
20260505221452 18 214 4.8 14.5 0.00 0.00 0.00 55 1005.8
20260505220910 18 199 1.6 14.5 0.00 0.00 0.00 55 1006.0
20260505220808 18 202 6.4 14.5 0.00 0.00 0.00 55 1005.8
20260505220741 18 199 4.8 14.5 0.00 0.00 0.00 55 1005.8
20260505220709 18 200 1.6 14.5 0.00 0.00 0.00 56 1006.0
20260505220644 18 192 6.4 12.9 0.00 0.00 0.00 56 1005.9
20260505220636 18 208 4.8 14.5 0.00 0.00 0.00 56 1005.8
20260505220620 18 225 3.2 14.5 0.00 0.00 0.00 56 1006.0
20260505220604 18 211 4.8 14.5 0.00 0.00 0.00 55 1006.2
20260505220547 18 196 0.0 12.9 0.00 0.00 0.00 56 1005.9
20260505220320 18 213 6.4 12.9 0.00 0.00 0.00 55 1006.0
20260505220033 18 187 1.6 12.9 0.00 0.00 0.00 56 1006.0
20260505220019 18 217 3.2 12.9 0.00 0.00 0.00 56 1005.9
20260505220002 18 223 3.2 12.9 0.00 0.00 0.00 56 1006.0
20260505215949 18 199 3.2 12.9 0.00 0.00 0.00 56 1006.0
20260505215940 18 203 1.6 12.9 0.00 0.00 0.00 56 1006.0
20260505215359 18 196 0.0 12.9 0.00 0.00 0.00 56 1006.2
20260505215258 18 188 0.0 12.9 0.00 0.00 0.00 56 1006.4
20260505215229 18 204 8.0 12.9 0.00 0.00 0.00 56 1006.2
20260505215158 18 214 0.0 12.9 0.00 0.00 0.00 56 1006.2
20260505215126 18 184 3.2 12.9 0.00 0.00 0.00 56 1006.2
20260505215111 18 207 9.7 12.9 0.00 0.00 0.00 56 1006.3
20260505215056 18 162 0.0 12.9 0.00 0.00 0.00 56 1006.0
20260505215039 18 189 3.2 12.9 0.00 0.00 0.00 56 1006.2
20260505215026 18 232 1.6 14.5 0.00 0.00 0.00 56 1005.9
20260505214453 19 196 0.0 14.5 0.00 0.00 0.00 56 1006.2
20260505214351 19 212 3.2 14.5 0.00 0.00 0.00 56 1006.2
20260505214251 19 178 0.0 14.5 0.00 0.00 0.00 56 1005.9
20260505214225 19 200 1.6 14.5 0.00 0.00 0.00 56 1006.2
20260505214151 19 186 1.6 14.5 0.00 0.00 0.00 56 1006.2
20260505214051 19 200 1.6 14.5 0.00 0.00 0.00 56 1006.3
20260505213951 19 204 1.6 14.5 0.00 0.00 0.00 55 1006.0
20260505213843 19 202 3.2 14.5 0.00 0.00 0.00 56 1006.2
20260505213810 19 219 4.8 12.9 0.00 0.00 0.00 55 1006.4
20260505213759 19 184 3.2 12.9 0.00 0.00 0.00 55 1006.0
20260505213747 19 222 1.6 12.9 0.00 0.00 0.00 55 1006.2
20260505213512 19 182 0.0 16.1 0.00 0.00 0.00 55 1006.4
20260505213503 19 200 1.6 16.1 0.00 0.00 0.00 55 1006.0
20260505213447 19 213 1.6 16.1 0.00 0.00 0.00 55 1006.2
20260505213431 19 184 3.2 16.1 0.00 0.00 0.00 55 1006.4
20260505213203 19 179 0.0 16.1 0.00 0.00 0.00 55 1006.2
20260505213147 19 184 3.2 16.1 0.00 0.00 0.00 55 1006.2
20260505212901 19 152 1.6 16.1 0.00 0.00 0.00 55 1006.4
20260505212852 19 205 1.6 20.9 0.00 0.00 0.00 55 1006.2
20260505212823 19 199 0.0 20.9 0.00 0.00 0.00 55 1006.2
20260505212812 19 215 4.8 20.9 0.00 0.00 0.00 55 1006.3
20260505212756 19 208 9.7 20.9 0.00 0.00 0.00 55 1006.3
20260505212254 19 215 3.2 20.9 0.00 0.00 0.00 55 1006.3
20260505212235 19 218 8.0 20.9 0.00 0.00 0.00 55 1006.5
20260505212219 19 217 3.2 20.9 0.00 0.00 0.00 55 1006.5
20260505212204 19 164 4.8 16.1 0.00 0.00 0.00 55 1006.5
20260505212147 19 202 1.6 16.1 0.00 0.00 0.00 55 1006.4
20260505211652 19 187 6.4 16.1 0.00 0.00 0.00 54 1006.2
20260505211636 19 229 12.9 16.1 0.00 0.00 0.00 54 1006.4
20260505211315 20 234 6.4 16.1 0.00 0.00 0.00 54 1006.3
20260505211216 20 207 1.6 20.9 0.00 0.00 0.00 54 1006.5
20260505211116 20 226 8.0 20.9 0.00 0.00 0.00 54 1006.4
20260505211016 20 225 6.4 20.9 0.00 0.00 0.00 54 1006.3
20260505210915 20 216 9.7 20.9 0.00 0.00 0.00 54 1006.4
20260505210815 20 223 8.0 20.9 0.00 0.00 0.00 54 1006.2
20260505210716 20 204 1.6 20.9 0.00 0.00 0.00 53 1006.4
20260505210615 20 244 9.7 20.9 0.00 0.00 0.00 53 1006.4
20260505210513 20 203 8.0 20.9 0.00 0.00 0.00 53 1006.2
20260505210356 20 211 4.8 20.9 0.00 0.00 0.00 53 1006.3
20260505210333 20 219 3.2 16.1 0.00 0.00 0.00 53 1006.4
20260505210010 20 208 3.2 16.1 0.00 0.00 0.00 53 1006.0
20260505205910 20 229 4.8 16.1 0.00 0.00 0.00 53 1006.3
20260505205809 20 224 3.2 16.1 0.00 0.00 0.00 53 1006.3
20260505205705 20 219 6.4 16.1 0.00 0.00 0.00 53 1006.2
20260505205605 20 228 11.3 16.1 0.00 0.00 0.00 53 1006.4
20260505205505 20 200 1.6 16.1 0.00 0.00 0.00 53 1006.4
20260505205405 19 178 0.0 16.1 0.00 0.00 0.00 53 1006.3
20260505205322 20 182 1.6 11.3 0.00 0.00 0.00 53 1006.2
20260505205316 19 190 11.3 14.5 0.00 0.00 0.00 53 1006.4
20260505205254 19 190 3.2 11.3 0.00 0.00 0.00 53 1006.2
20260505205227 19 196 0.0 11.3 0.00 0.00 0.00 53 1006.3
20260505205208 19 181 1.6 11.3 0.00 0.00 0.00 53 1006.2
20260505204930 19 206 3.2 11.3 0.00 0.00 0.00 53 1006.2
20260505204913 20 182 1.6 11.3 0.00 0.00 0.00 53 1006.2
20260505204604 20 198 1.6 11.3 0.00 0.00 0.00 53 1006.2
20260505204500 20 205 0.0 11.3 0.00 0.00 0.00 52 1006.2
20260505204359 20 191 0.0 11.3 0.00 0.00 0.00 52 1006.3
20260505204259 19 207 6.4 11.3 0.00 0.00 0.00 52 1006.3
20260505204159 19 160 3.2 6.4 0.00 0.00 0.00 52 1006.2
20260505204100 19 200 1.6 6.4 0.00 0.00 0.00 52 1006.2
20260505204032 20 194 3.2 6.4 0.00 0.00 0.00 52 1006.3
20260505204024 19 184 1.6 6.4 0.00 0.00 0.00 52 1006.3
20260505204009 19 202 0.0 6.4 0.00 0.00 0.00 53 1006.0
20260505203954 20 188 0.0 6.4 0.00 0.00 0.00 52 1006.0
20260505203931 20 196 0.0 6.4 0.00 0.00 0.00 52 1006.0
20260505203916 20 199 1.6 6.4 0.00 0.00 0.00 52 1006.2
20260505203900 20 192 0.0 6.4 0.00 0.00 0.00 52 1005.8
20260505203845 20 181 1.6 6.4 0.00 0.00 0.00 52 1006.3
20260505203829 20 194 1.6 6.4 0.00 0.00 0.00 52 1006.5
20260505203807 20 190 0.0 4.8 0.00 0.00 0.00 52 1006.3
20260505203309 20 194 0.0 6.4 0.00 0.00 0.00 52 1006.0
20260505203253 20 196 0.0 6.4 0.00 0.00 0.00 52 1006.0
20260505202459 20 204 1.6 9.7 0.00 0.00 0.00 52 1006.3
20260505202400 20 199 0.0 9.7 0.00 0.00 0.00 52 1006.2
20260505202259 20 171 0.0 9.7 0.00 0.00 0.00 52 1006.2
20260505202159 20 201 3.2 9.7 0.00 0.00 0.00 52 1006.0
20260505202100 20 187 1.6 9.7 0.00 0.00 0.00 51 1006.0
20260505202000 20 199 1.6 9.7 0.00 0.00 0.00 52 1006.0
20260505201903 20 199 1.6 9.7 0.00 0.00 0.00 52 1006.3
20260505201832 20 203 1.6 6.4 0.00 0.00 0.00 50 1006.0
20260505201825 20 185 0.0 6.4 0.00 0.00 0.00 51 1006.2
20260505201818 20 190 0.0 9.7 0.00 0.00 0.00 52 1006.3
20260505201756 20 174 0.0 9.7 0.00 0.00 0.00 51 1006.2
20260505201740 20 175 1.6 9.7 0.00 0.00 0.00 51 1006.3
20260505201724 20 199 1.6 9.7 0.00 0.00 0.00 52 1006.0
20260505201707 20 207 1.6 9.7 0.00 0.00 0.00 52 1006.4
20260505201651 20 188 0.0 9.7 0.00 0.00 0.00 51 1005.9
20260505201628 20 198 0.0 9.7 0.00 0.00 0.00 51 1006.2
20260505201537 20 174 0.0 9.7 0.00 0.00 0.00 51 1006.0
20260505201512 20 196 3.2 9.7 0.00 0.00 0.00 51 1006.2
20260505201231 20 190 0.0 9.7 0.00 0.00 0.00 51 1006.3
20260505201209 20 207 0.0 9.7 0.00 0.00 0.00 51 1006.0
20260505201153 20 198 1.6 9.7 0.00 0.00 0.00 51 1006.2
20260505200918 20 209 0.0 9.7 0.00 0.00 0.00 50 1006.2
20260505200902 20 224 3.2 9.7 0.00 0.00 0.00 51 1006.2
20260505200413 20 194 0.0 6.4 0.00 0.00 0.00 51 1006.2
20260505195929 20 204 1.6 6.4 0.00 0.00 0.00 51 1006.2
20260505195913 20 190 0.0 6.4 0.00 0.00 0.00 50 1005.9
20260505195857 20 203 1.6 6.4 0.00 0.00 0.00 50 1006.0
20260505195546 20 187 0.0 6.4 0.00 0.00 0.00 50 1006.0
20260505195446 20 187 0.0 6.4 0.00 0.00 0.00 50 1006.2
20260505195341 20 165 0.0 6.4 0.00 0.00 0.00 50 1006.2
20260505195241 20 191 0.0 9.7 0.00 0.00 0.00 50 1006.0
20260505195141 20 190 3.2 9.7 0.00 0.00 0.00 50 1006.2
20260505195041 20 182 0.0 9.7 0.00 0.00 0.00 50 1006.0
20260505194941 20 191 3.2 9.7 0.00 0.00 0.00 49 1006.2
20260505194841 20 204 0.0 9.7 0.00 0.00 0.00 49 1006.3
20260505194741 20 181 1.6 11.3 0.00 0.00 0.00 49 1005.9
20260505194641 20 208 3.2 11.3 0.00 0.00 0.00 50 1006.2
20260505194540 20 202 0.0 12.9 0.00 0.00 0.00 50 1006.0
20260505194439 20 208 1.6 12.9 0.00 0.00 0.00 49 1006.3
20260505194339 20 198 4.8 12.9 0.00 0.00 0.00 49 1006.0
20260505194240 20 200 0.0 12.9 0.00 0.00 0.00 50 1006.2
20260505194136 20 192 1.6 12.9 0.00 0.00 0.00 50 1006.3
20260505194128 20 192 1.6 12.9 0.00 0.00 0.00 49 1006.2
20260505194028 20 206 0.0 12.9 0.00 0.00 0.00 49 1006.2
20260505194003 20 188 0.0 12.9 0.00 0.00 0.00 49 1006.2
20260505193947 20 194 8.0 12.9 0.00 0.00 0.00 49 1006.4
20260505193635 20 202 8.0 12.9 0.00 0.00 0.00 48 1005.9
20260505193626 20 202 8.0 12.9 0.00 0.00 0.00 49 1006.2
20260505193521 20 189 0.0 9.7 0.00 0.00 0.00 49 1006.0
20260505193423 20 264 6.4 9.7 0.00 0.00 0.00 49 1006.3
20260505193321 20 187 0.0 9.7 0.00 0.00 0.00 49 1006.0
20260505193301 20 216 6.4 9.7 0.00 0.00 0.00 48 1006.2
20260505193246 20 190 0.0 4.8 0.00 0.00 0.00 48 1006.0
20260505193237 20 200 0.0 4.8 0.00 0.00 0.00 48 1006.0
20260505192953 20 182 0.0 4.8 0.00 0.00 0.00 48 1006.0
20260505192937 20 196 1.6 4.8 0.00 0.00 0.00 48 1006.3
20260505192617 20 187 1.6 4.8 0.00 0.00 0.00 48 1006.2
20260505192516 20 188 0.0 4.8 0.00 0.00 0.00 48 1006.3
20260505192417 20 191 0.0 4.8 0.00 0.00 0.00 48 1006.0
20260505192317 20 192 0.0 4.8 0.00 0.00 0.00 48 1006.2
20260505192216 20 189 0.0 4.8 0.00 0.00 0.00 47 1006.3
20260505192116 20 183 0.0 4.8 0.00 0.00 0.00 48 1006.4
20260505192017 21 189 1.6 9.7 0.00 0.00 0.00 48 1006.5
20260505191952 21 187 0.0 9.7 0.00 0.00 0.00 47 1006.0
20260505191937 21 198 3.2 9.7 0.00 0.00 0.00 47 1006.3
20260505191623 21 194 0.0 9.7 0.00 0.00 0.00 48 1006.4
20260505191615 21 185 0.0 9.7 0.00 0.00 0.00 47 1006.4
20260505191515 21 192 0.0 9.7 0.00 0.00 0.00 47 1006.2
20260505191443 21 200 1.6 9.7 0.00 0.00 0.00 47 1006.3
20260505191427 21 198 1.6 9.7 0.00 0.00 0.00 47 1006.2
20260505191133 21 221 6.4 11.3 0.00 0.00 0.00 47 1006.4
20260505191124 21 234 3.2 11.3 0.00 0.00 0.00 47 1006.3
20260505191108 21 208 3.2 11.3 0.00 0.00 0.00 47 1006.2
20260505191052 21 195 3.2 11.3 0.00 0.00 0.00 47 1006.2
20260505191035 21 166 0.0 11.3 0.00 0.00 0.00 47 1006.2
20260505190801 21 220 3.2 11.3 0.00 0.00 0.00 47 1006.3
20260505190753 21 198 0.0 11.3 0.00 0.00 0.00 47 1006.3
20260505190738 21 199 1.6 11.3 0.00 0.00 0.00 47 1006.3
20260505190722 21 214 3.2 11.3 0.00 0.00 0.00 46 1006.4
20260505190706 21 204 1.6 11.3 0.00 0.00 0.00 47 1006.3
20260505190431 21 198 0.0 6.4 0.00 0.00 0.00 47 1006.2
20260505185857 21 202 4.8 6.4 0.00 0.00 0.00 46 1006.3
20260505185758 21 192 0.0 6.4 0.00 0.00 0.00 46 1006.3
20260505185733 21 194 1.6 6.4 0.00 0.00 0.00 46 1006.2
20260505185718 21 211 1.6 6.4 0.00 0.00 0.00 46 1006.3
20260505185710 21 203 4.8 6.4 0.00 0.00 0.00 46 1006.3
20260505185655 21 201 0.0 4.8 0.00 0.00 0.00 46 1006.0
20260505185639 21 196 1.6 4.8 0.00 0.00 0.00 46 1006.4
20260505185118 21 200 1.6 4.8 0.00 0.00 0.00 46 1006.3
20260505185058 21 187 0.0 4.8 0.00 0.00 0.00 46 1006.3
20260505184958 21 199 3.2 4.8 0.00 0.00 0.00 45 1005.9
20260505184858 21 216 3.2 4.8 0.00 0.00 0.00 45 1006.3
20260505184758 21 186 0.0 4.8 0.00 0.00 0.00 45 1006.0
20260505184740 21 192 0.0 4.8 0.00 0.00 0.00 45 1006.2
20260505184726 21 193 0.0 4.8 0.00 0.00 0.00 45 1006.2
20260505184718 21 198 0.0 9.7 0.00 0.00 0.00 45 1006.2
20260505184358 21 204 0.0 9.7 0.00 0.00 0.00 45 1006.4
20260505184257 21 206 0.0 9.7 0.00 0.00 0.00 45 1006.5
20260505184157 21 206 0.0 9.7 0.00 0.00 0.00 45 1006.0
20260505184117 21 210 1.6 9.7 0.00 0.00 0.00 45 1006.2
20260505184058 22 209 1.6 9.7 0.00 0.00 0.00 45 1006.2
20260505184035 22 201 1.6 9.7 0.00 0.00 0.00 45 1006.3
20260505184019 22 226 3.2 9.7 0.00 0.00 0.00 45 1005.8
20260505183657 22 196 1.6 9.7 0.00 0.00 0.00 45 1006.4
20260505183618 22 210 4.8 9.7 0.00 0.00 0.00 45 1005.9
20260505183557 22 222 6.4 9.7 0.00 0.00 0.00 45 1005.9
20260505183457 22 214 3.2 6.4 0.00 0.00 0.00 45 1006.0
20260505183357 22 217 3.2 6.4 0.00 0.00 0.00 45 1005.8
20260505183258 22 226 1.6 6.4 0.00 0.00 0.00 45 1006.0
20260505183157 22 230 3.2 9.7 0.00 0.00 0.00 45 1006.2
20260505183105 22 177 3.2 9.7 0.00 0.00 0.00 44 1006.2
20260505183057 22 220 1.6 9.7 0.00 0.00 0.00 44 1006.2
20260505183036 22 215 1.6 9.7 0.00 0.00 0.00 44 1005.9
20260505183028 22 209 1.6 9.7 0.00 0.00 0.00 44 1006.2
20260505183012 22 211 1.6 9.7 0.00 0.00 0.00 44 1006.2
20260505182954 22 198 1.6 9.7 0.00 0.00 0.00 44 1006.3
20260505182939 22 196 1.6 9.7 0.00 0.00 0.00 44 1006.0
20260505182711 22 202 1.6 9.7 0.00 0.00 0.00 44 1005.9
20260505182351 22 207 0.0 9.7 0.00 0.00 0.00 44 1006.0
20260505182247 22 211 4.8 9.7 0.00 0.00 0.00 44 1006.2
20260505182148 22 214 6.4 9.7 0.00 0.00 0.00 43 1006.0
20260505182057 22 236 3.2 9.7 0.00 0.00 0.00 44 1006.0
20260505182047 22 208 1.6 9.7 0.00 0.00 0.00 44 1006.0
20260505182035 22 231 3.2 12.9 0.00 0.00 0.00 43 1005.9
20260505182030 22 194 1.6 12.9 0.00 0.00 0.00 43 1005.8
20260505182025 23 215 3.2 14.5 0.00 0.00 0.00 42 1005.7
20260505182017 22 200 0.0 12.9 0.00 0.00 0.00 44 1005.9
20260505182001 22 237 4.8 12.9 0.00 0.00 0.00 44 1006.0
20260505181946 22 225 3.2 12.9 0.00 0.00 0.00 43 1006.0
20260505181930 22 211 0.0 12.9 0.00 0.00 0.00 43 1005.8
20260505181702 22 207 0.0 12.9 0.00 0.00 0.00 43 1005.9
20260505181646 22 198 0.0 12.9 0.00 0.00 0.00 43 1006.0
20260505181631 22 200 0.0 12.9 0.00 0.00 0.00 43 1006.0
20260505181614 22 205 1.6 12.9 0.00 0.00 0.00 43 1005.8
20260505181558 22 208 0.0 12.9 0.00 0.00 0.00 43 1005.9
20260505181329 22 199 4.8 12.9 0.00 0.00 0.00 43 1005.8
20260505181314 22 200 0.0 11.3 0.00 0.00 0.00 43 1005.8
20260505181258 22 233 1.6 11.3 0.00 0.00 0.00 43 1005.9
20260505181023 22 222 3.2 14.5 0.00 0.00 0.00 42 1005.7
20260505181008 22 207 3.2 14.5 0.00 0.00 0.00 42 1006.2
20260505180740 22 237 3.2 14.5 0.00 0.00 0.00 42 1005.8
20260505180724 22 187 4.8 14.5 0.00 0.00 0.00 42 1006.0
20260505180447 22 207 1.6 14.5 0.00 0.00 0.00 42 1005.8
20260505175912 23 192 1.6 14.5 0.00 0.00 0.00 41 1006.0
20260505175856 23 209 9.7 20.9 0.00 0.00 0.00 41 1006.0
20260505175555 23 202 1.6 20.9 0.00 0.00 0.00 41 1006.3
20260505175534 23 252 3.2 20.9 0.00 0.00 0.00 41 1006.3
20260505175435 23 201 3.2 20.9 0.00 0.00 0.00 41 1005.9
20260505175333 23 188 8.0 20.9 0.00 0.00 0.00 40 1005.9
20260505175234 23 145 1.6 20.9 0.00 0.00 0.00 40 1005.9
20260505175213 23 222 3.2 20.9 0.00 0.00 0.00 40 1006.3
20260505175157 23 223 3.2 20.9 0.00 0.00 0.00 40 1005.8
20260505175149 23 171 1.6 20.9 0.00 0.00 0.00 40 1005.9
20260505174828 23 216 3.2 20.9 0.00 0.00 0.00 39 1005.8
20260505174728 23 225 9.7 20.9 0.00 0.00 0.00 39 1005.7
20260505174707 23 229 0.0 20.9 0.00 0.00 0.00 39 1005.9
20260505174651 23 201 4.8 20.9 0.00 0.00 0.00 39 1005.9
20260505174328 23 163 6.4 20.9 0.00 0.00 0.00 38 1005.7
20260505174228 23 207 3.2 20.9 0.00 0.00 0.00 38 1006.0
20260505174211 23 209 6.4 20.9 0.00 0.00 0.00 38 1005.9
20260505174155 23 217 8.0 20.9 0.00 0.00 0.00 37 1005.9
20260505174147 23 240 4.8 20.9 0.00 0.00 0.00 37 1005.8
20260505173827 23 265 1.6 20.9 0.00 0.00 0.00 36 1005.9
20260505173728 23 178 1.6 20.9 0.00 0.00 0.00 36 1005.8
20260505173629 23 221 0.0 20.9 0.00 0.00 0.00 36 1005.7
20260505173614 23 230 4.8 20.9 0.00 0.00 0.00 35 1005.7
20260505173607 23 284 11.3 20.9 0.00 0.00 0.00 35 1005.8
20260505173550 23 259 4.8 9.7 0.00 0.00 0.00 35 1005.8
20260505173228 23 192 0.0 9.7 0.00 0.00 0.00 35 1005.8
20260505173129 23 189 0.0 9.7 0.00 0.00 0.00 35 1005.8
20260505173049 23 248 0.0 9.7 0.00 0.00 0.00 33 1005.8
20260505173027 23 222 6.4 9.7 0.00 0.00 0.00 33 1005.7
20260505172917 23 227 0.0 11.3 0.00 0.00 0.00 33 1005.7
20260505172850 23 205 0.0 11.3 0.00 0.00 0.00 33 1005.8
20260505172835 23 194 0.0 11.3 0.00 0.00 0.00 33 1005.8
20260505172600 23 216 8.0 11.3 0.00 0.00 0.00 33 1005.7
20260505172551 23 194 0.0 12.9 0.00 0.00 0.00 33 1005.5
20260505172536 23 208 3.2 12.9 0.00 0.00 0.00 33 1005.5
20260505172215 24 198 0.0 12.9 0.00 0.00 0.00 33 1005.7
20260505172116 24 214 0.0 12.9 0.00 0.00 0.00 32 1005.6
20260505172106 24 208 3.2 24.1 0.00 0.00 0.00 31 1005.8
20260505172056 24 210 6.4 12.9 0.00 0.00 0.00 32 1005.6
20260505172047 24 203 6.4 12.9 0.00 0.00 0.00 32 1005.5
20260505172031 24 222 0.0 12.9 0.00 0.00 0.00 32 1005.8
20260505172014 24 201 0.0 12.9 0.00 0.00 0.00 32 1005.5
20260505171958 24 195 4.8 12.9 0.00 0.00 0.00 32 1005.7
20260505171943 24 198 1.6 22.5 0.00 0.00 0.00 32 1005.8
20260505171930 24 227 8.0 22.5 0.00 0.00 0.00 31 1005.8
20260505171450 24 195 4.8 22.5 0.00 0.00 0.00 31 1005.6
20260505171434 24 147 3.2 22.5 0.00 0.00 0.00 31 1005.6
20260505171418 24 228 3.2 24.1 0.00 0.00 0.00 31 1005.8
20260505171404 24 228 4.8 24.1 0.00 0.00 0.00 31 1005.8
20260505171136 24 217 1.6 24.1 0.00 0.00 0.00 31 1005.5
20260505170905 24 238 1.6 24.1 0.00 0.00 0.00 31 1005.7
20260505170857 24 219 4.8 24.1 0.00 0.00 0.00 31 1005.8
20260505170843 24 252 1.6 24.1 0.00 0.00 0.00 31 1005.4
20260505170828 24 187 0.0 24.1 0.00 0.00 0.00 32 1005.7
20260505170601 24 199 0.0 24.1 0.00 0.00 0.00 31 1005.6
20260505170544 24 278 9.7 24.1 0.00 0.00 0.00 31 1005.7
20260505170310 24 232 11.3 20.9 0.00 0.00 0.00 31 1005.6
20260505170042 24 214 6.4 16.1 0.00 0.00 0.00 31 1005.7
20260505165941 24 198 6.4 16.1 0.00 0.00 0.00 31 1005.7
20260505165843 24 198 0.0 16.1 0.00 0.00 0.00 31 1005.6
20260505165740 24 237 4.8 16.1 0.00 0.00 0.00 31 1005.6
20260505165641 24 222 3.2 16.1 0.00 0.00 0.00 31 1005.6
20260505165543 24 222 12.9 16.1 0.00 0.00 0.00 31 1005.7
20260505165442 24 229 8.0 16.1 0.00 0.00 0.00 31 1005.5
20260505165341 24 335 9.7 16.1 0.00 0.00 0.00 31 1005.7
20260505165322 24 199 6.4 9.7 0.00 0.00 0.00 31 1005.7
20260505165308 25 213 3.2 9.7 0.00 0.00 0.00 30 1005.8
20260505165039 25 192 3.2 9.7 0.00 0.00 0.00 31 1005.5
20260505164603 25 72 4.8 17.7 0.00 0.00 0.00 30 1005.7
20260505164503 25 261 3.2 17.7 0.00 0.00 0.00 31 1005.8
20260505164403 25 155 0.0 17.7 0.00 0.00 0.00 31 1005.8
20260505164347 25 216 1.6 17.7 0.00 0.00 0.00 31 1005.8
20260505164331 25 205 3.2 17.7 0.00 0.00 0.00 30 1005.9
20260505164103 25 183 3.2 17.7 0.00 0.00 0.00 30 1005.9
20260505164017 25 218 9.7 22.5 0.00 0.00 0.00 29 1005.8
20260505164013 25 172 0.0 22.5 0.00 0.00 0.00 29 1005.9
20260505164005 25 237 6.4 17.7 0.00 0.00 0.00 30 1005.9
20260505163949 25 217 4.8 17.7 0.00 0.00 0.00 30 1005.9
20260505163933 25 212 0.0 17.7 0.00 0.00 0.00 31 1005.8
20260505163917 25 265 8.0 17.7 0.00 0.00 0.00 30 1005.5
20260505163854 25 186 0.0 17.7 0.00 0.00 0.00 31 1005.9
20260505163838 25 212 8.0 17.7 0.00 0.00 0.00 30 1005.8
20260505163820 25 214 4.8 17.7 0.00 0.00 0.00 30 1005.8
20260505163317 25 107 1.6 17.7 0.00 0.00 0.00 30 1005.9
20260505163301 25 234 0.0 17.7 0.00 0.00 0.00 30 1005.8
20260505163245 25 186 0.0 17.7 0.00 0.00 0.00 31 1005.8
20260505163229 25 177 0.0 17.7 0.00 0.00 0.00 30 1005.6
20260505162946 25 231 6.4 17.7 0.00 0.00 0.00 30 1005.6
20260505162930 25 169 1.6 20.9 0.00 0.00 0.00 30 1005.7
20260505162912 25 248 3.2 20.9 0.00 0.00 0.00 30 1005.8
20260505162856 25 262 4.8 20.9 0.00 0.00 0.00 30 1005.8
20260505162612 25 127 0.0 20.9 0.00 0.00 0.00 30 1005.7
20260505162336 25 181 0.0 20.9 0.00 0.00 0.00 30 1005.7
20260505162322 25 206 0.0 20.9 0.00 0.00 0.00 30 1006.0
20260505162307 25 203 1.6 20.9 0.00 0.00 0.00 29 1005.9
20260505161820 25 137 1.6 22.5 0.00 0.00 0.00 29 1005.6
20260505161802 25 174 0.0 22.5 0.00 0.00 0.00 29 1005.7
20260505161746 25 151 1.6 22.5 0.00 0.00 0.00 29 1005.5
20260505161508 25 172 0.0 22.5 0.00 0.00 0.00 29 1005.9
20260505161243 25 226 6.4 22.5 0.00 0.00 0.00 29 1005.9
20260505161227 25 168 0.0 22.5 0.00 0.00 0.00 29 1005.8
20260505160952 25 214 8.0 22.5 0.00 0.00 0.00 29 1005.9
20260505160929 25 227 3.2 16.1 0.00 0.00 0.00 28 1005.8
20260505160913 25 211 8.0 16.1 0.00 0.00 0.00 29 1005.9
20260505160633 25 194 3.2 12.9 0.00 0.00 0.00 28 1005.9
20260505160617 25 223 3.2 12.9 0.00 0.00 0.00 28 1005.8
20260505160551 25 225 1.6 22.5 0.00 0.00 0.00 28 1005.8
20260505160315 25 217 4.8 22.5 0.00 0.00 0.00 28 1005.8
20260505153116 26 226 9.7 27.4 0.00 0.00 0.00 26 1006.0
20260505153101 26 134 4.8 41.8 0.00 0.00 0.00 25 1006.2
20260505153045 26 192 1.6 41.8 0.00 0.00 0.00 25 1005.9
20260505152512 26 326 8.0 41.8 0.00 0.00 0.00 25 1006.2
20260505152505 26 215 4.8 41.8 0.00 0.00 0.00 25 1006.2
20260505152410 26 238 3.2 41.8 0.00 0.00 0.00 25 1006.0
20260505152305 26 180 6.4 41.8 0.00 0.00 0.00 25 1006.2
20260505152205 26 237 9.7 41.8 0.00 0.00 0.00 25 1005.7
20260505152105 26 216 17.7 41.8 0.00 0.00 0.00 25 1005.8
20260505152012 26 234 14.5 41.8 0.00 0.00 0.00 25 1005.9
20260505152005 26 244 24.1 41.8 0.00 0.00 0.00 25 1005.9
20260505151947 26 334 11.3 27.4 0.00 0.00 0.00 26 1005.7
20260505151938 26 30 11.3 27.4 0.00 0.00 0.00 25 1006.0
20260505151921 26 235 1.6 27.4 0.00 0.00 0.00 26 1005.9
20260505151906 26 212 3.2 27.4 0.00 0.00 0.00 26 1005.9
20260505151849 26 267 9.7 27.4 0.00 0.00 0.00 26 1005.9
20260505151622 26 243 8.0 27.4 0.00 0.00 0.00 26 1005.7
20260505151258 26 141 6.4 27.4 0.00 0.00 0.00 26 1006.0